Observation data for Throckmorton on 12/08/2018      Previous  Date       Current Mesonet Observations  Soil Data  Daily Summary Page  Observations in Plain Language
KTH1 080600Z 01006KT 01/01 A3029 RMK A01 T00100008  RH  099%=      5-min Rain = 0
KTH1 080601Z 01005KT 01/01 A3029 RMK A01 T00090007  RH  099%=      5-min Rain = 0
KTH1 080602Z 01008KT 01/01 A3029 RMK A01 T00100008  RH  099%=      5-min Rain = 0.01
KTH1 080603Z 02008KT 01/01 A3028 RMK A01 T00090008  RH  099%=      5-min Rain = 0
KTH1 080604Z 01007KT 01/01 A3028 RMK A01 T00100008  RH  099%=      5-min Rain = 0
KTH1 080605Z 02009KT 01/01 A3028 RMK A01 T00090008  RH  099%=      5-min Rain = 0
KTH1 080606Z 02008KT 01/01 A3028 RMK A01 T00100008  RH  099%=      5-min Rain = 0
KTH1 080607Z 02009KT 01/01 A3028 RMK A01 T00090008  RH  099%=      5-min Rain = 0
KTH1 080608Z 02009KT 01/01 A3028 RMK A01 T00090007  RH  099%=      5-min Rain = 0
KTH1 080609Z 02009KT 01/01 A3028 RMK A01 T00090007  RH  099%=      5-min Rain = 0
KTH1 080610Z 02009KT 01/01 A3028 RMK A01 T00090007  RH  099%=      5-min Rain = 0
KTH1 080611Z 02010KT 01/01 A3027 RMK A01 T00090007  RH  099%=      5-min Rain = 0
KTH1 080612Z 02007KT 01/01 A3027 RMK A01 T00090007  RH  099%=      5-min Rain = 0
KTH1 080613Z 02010KT 01/01 A3027 RMK A01 T00090007  RH  099%=      5-min Rain = 0.01
KTH1 080614Z 02008KT 01/01 A3027 RMK A01 T00080006  RH  099%=      5-min Rain = 0
KTH1 080615Z 01006KT 01/01 A3027 RMK A01 T00090007  RH  099%=      5-min Rain = 0
KTH1 080616Z 03008KT 01/01 A3027 RMK A01 T00090007  RH  099%=      5-min Rain = 0
KTH1 080617Z 02007KT 01/01 A3027 RMK A01 T00090007  RH  099%=      5-min Rain = 0
KTH1 080618Z 01009KT 01/01 A3028 RMK A01 T00080007  RH  099%=      5-min Rain = 0
KTH1 080619Z 01008KT 01/01 A3028 RMK A01 T00090007  RH  099%=      5-min Rain = 0
KTH1 080620Z 01010KT 01/01 A3028 RMK A01 T00080007  RH  099%=      5-min Rain = 0
KTH1 080621Z 01008KT 01/01 A3028 RMK A01 T00090007  RH  099%=      5-min Rain = 0
KTH1 080622Z 36008KT 01/01 A3028 RMK A01 T00090007  RH  099%=      5-min Rain = 0
KTH1 080623Z 01006KT 01/01 A3028 RMK A01 T00090007  RH  099%=      5-min Rain = 0
KTH1 080624Z 00009KT 01/01 A3028 RMK A01 T00080007  RH  099%=      5-min Rain = 0
KTH1 080625Z 01007KT 01/01 A3028 RMK A01 T00090007  RH  099%=      5-min Rain = 0
KTH1 080626Z 01006KT 01/01 A3028 RMK A01 T00090007  RH  099%=      5-min Rain = 0
KTH1 080627Z 00008KT 01/01 A3028 RMK A01 T00090007  RH  099%=      5-min Rain = 0
KTH1 080628Z 01010KT 01/01 A3028 RMK A01 T00080007  RH  099%=      5-min Rain = 0
KTH1 080629Z 01011KT 01/01 A3028 RMK A01 T00080007  RH  099%=      5-min Rain = 0
KTH1 080630Z 01009G14KT 01/01 A3028 RMK A01 T00090007  RH  099%=      5-min Rain = 0.01
KTH1 080631Z 01006KT 01/01 A3028 RMK A01 T00090007  RH  099%=      5-min Rain = 0
KTH1 080632Z 01005KT 01/01 A3028 RMK A01 T00090007  RH  099%=      5-min Rain = 0
KTH1 080633Z 00007G12KT 01/01 A3028 RMK A01 T00090007  RH  099%=      5-min Rain = 0
KTH1 080634Z 01009G14KT 01/01 A3028 RMK A01 T00090007  RH  099%=      5-min Rain = 0
KTH1 080635Z 01009G14KT 01/01 A3029 RMK A01 T00090007  RH  099%=      5-min Rain = 0
KTH1 080636Z 01009KT 01/01 A3029 RMK A01 T00080007  RH  099%=      5-min Rain = 0
KTH1 080637Z 01009KT 01/01 A3028 RMK A01 T00090007  RH  099%=      5-min Rain = 0
KTH1 080638Z 01009KT 01/01 A3028 RMK A01 T00080007  RH  099%=      5-min Rain = 0
KTH1 080639Z 01010KT 01/01 A3028 RMK A01 T00090007  RH  099%=      5-min Rain = 0
KTH1 080640Z 02008KT 01/01 A3028 RMK A01 T00090007  RH  099%=      5-min Rain = 0
KTH1 080641Z 00007KT 01/01 A3028 RMK A01 T00090007  RH  099%=      5-min Rain = 0
KTH1 080642Z 01008KT 01/01 A3028 RMK A01 T00090007  RH  099%=      5-min Rain = 0
KTH1 080643Z 01007G12KT 01/01 A3028 RMK A01 T00090007  RH  099%=      5-min Rain = 0.01
KTH1 080644Z 00011KT 01/01 A3028 RMK A01 T00090007  RH  099%=      5-min Rain = 0
KTH1 080645Z 01007KT 01/01 A3028 RMK A01 T00090007  RH  099%=      5-min Rain = 0
KTH1 080646Z 01007KT 01/01 A3028 RMK A01 T00090007  RH  099%=      5-min Rain = 0
KTH1 080647Z 00007KT 01/01 A3028 RMK A01 T00090007  RH  099%=      5-min Rain = 0
KTH1 080648Z 01008KT 01/01 A3029 RMK A01 T00090007  RH  099%=      5-min Rain = 0
KTH1 080649Z 36008KT 01/01 A3029 RMK A01 T00100008  RH  099%=      5-min Rain = 0
KTH1 080650Z 36007KT 01/01 A3029 RMK A01 T00100008  RH  099%=      5-min Rain = 0
KTH1 080651Z 35007KT 01/01 A3029 RMK A01 T00090008  RH  099%=      5-min Rain = 0
KTH1 080652Z 00010KT 01/01 A3029 RMK A01 T00090008  RH  099%=      5-min Rain = 0
KTH1 080653Z 36009KT 01/01 A3029 RMK A01 T00090008  RH  099%=      5-min Rain = 0
KTH1 080654Z 36010KT 01/01 A3029 RMK A01 T00100008  RH  099%=      5-min Rain = 0
KTH1 080655Z 35008KT 01/01 A3028 RMK A01 T00090008  RH  099%=      5-min Rain = 0
KTH1 080656Z 00009KT 01/01 A3028 RMK A01 T00100008  RH  099%=      5-min Rain = 0
KTH1 080657Z 00007KT 01/01 A3028 RMK A01 T00090008  RH  099%=      5-min Rain = 0
KTH1 080658Z 36010G15KT 01/01 A3028 RMK A01 T00090008  RH  099%=      5-min Rain = 0.01
KTH1 080659Z 01010KT 01/01 A3028 RMK A01 T00100008  RH  099%=      5-min Rain = 0
KTH1 080700Z 01010KT 01/01 A3028 RMK A01 T00100008  RH  099%=      5-min Rain = 0
KTH1 080701Z 01012KT 01/01 A3028 RMK A01 T00090007  RH  099%=      5-min Rain = 0
KTH1 080702Z 01010KT 01/01 A3028 RMK A01 T00090007  RH  099%=      5-min Rain = 0
KTH1 080703Z 01008G13KT 01/01 A3028 RMK A01 T00090007  RH  099%=      5-min Rain = 0
KTH1 080704Z 00010KT 01/01 A3028 RMK A01 T00090008  RH  099%=      5-min Rain = 0
KTH1 080705Z 00011KT 01/01 A3028 RMK A01 T00090007  RH  099%=      5-min Rain = 0
KTH1 080706Z 00008KT 01/01 A3028 RMK A01 T00090007  RH  099%=      5-min Rain = 0
KTH1 080707Z 02007KT 01/01 A3028 RMK A01 T00090007  RH  099%=      5-min Rain = 0
KTH1 080708Z 01009KT 01/01 A3028 RMK A01 T00090007  RH  099%=      5-min Rain = 0
KTH1 080709Z 01010KT 01/01 A3028 RMK A01 T00090007  RH  099%=      5-min Rain = 0
KTH1 080710Z 01008KT 01/01 A3028 RMK A01 T00090007  RH  099%=      5-min Rain = 0
KTH1 080711Z 01007KT 01/01 A3028 RMK A01 T00090007  RH  099%=      5-min Rain = 0
KTH1 080712Z 01007KT 01/01 A3028 RMK A01 T00090008  RH  099%=      5-min Rain = 0
KTH1 080713Z 01008KT 01/01 A3028 RMK A01 T00090008  RH  099%=      5-min Rain = 0
KTH1 080714Z 01006KT 01/01 A3028 RMK A01 T00090008  RH  099%=      5-min Rain = 0.01
KTH1 080715Z 01007KT 01/01 A3028 RMK A01 T00100008  RH  099%=      5-min Rain = 0
KTH1 080716Z 00009G14KT 01/01 A3028 RMK A01 T00090008  RH  099%=      5-min Rain = 0
KTH1 080717Z 00009KT 01/01 A3028 RMK A01 T00090008  RH  099%=      5-min Rain = 0
KTH1 080718Z 01009KT 01/01 A3028 RMK A01 T00100008  RH  099%=      5-min Rain = 0
KTH1 080719Z 00009KT 01/01 A3028 RMK A01 T00100008  RH  099%=      5-min Rain = 0
KTH1 080720Z 01007KT 01/01 A3028 RMK A01 T00100008  RH  099%=      5-min Rain = 0
KTH1 080721Z 36007KT 01/01 A3028 RMK A01 T00100009  RH  099%=      5-min Rain = 0
KTH1 080722Z 36008KT 01/01 A3028 RMK A01 T00100009  RH  099%=      5-min Rain = 0
KTH1 080723Z 35007KT 01/01 A3028 RMK A01 T00110009  RH  099%=      5-min Rain = 0
KTH1 080724Z 35008KT 01/01 A3028 RMK A01 T00110009  RH  099%=      5-min Rain = 0
KTH1 080725Z 00010KT 01/01 A3028 RMK A01 T00110009  RH  099%=      5-min Rain = 0
KTH1 080726Z 36008KT 01/01 A3028 RMK A01 T00110010  RH  099%=      5-min Rain = 0
KTH1 080727Z 01007KT 01/01 A3028 RMK A01 T00110010  RH  099%=      5-min Rain = 0
KTH1 080728Z 01007KT 01/01 A3028 RMK A01 T00110009  RH  099%=      5-min Rain = 0
KTH1 080729Z 02009KT 01/01 A3028 RMK A01 T00100009  RH  099%=      5-min Rain = 0
KTH1 080730Z 02007KT 01/01 A3028 RMK A01 T00100009  RH  099%=      5-min Rain = 0
KTH1 080731Z 02009KT 01/01 A3028 RMK A01 T00100008  RH  099%=      5-min Rain = 0
KTH1 080732Z 03010KT 01/01 A3028 RMK A01 T00100008  RH  099%=      5-min Rain = 0
KTH1 080733Z 02010KT 01/01 A3027 RMK A01 T00100008  RH  099%=      5-min Rain = 0
KTH1 080734Z 03009KT 01/01 A3027 RMK A01 T00100008  RH  099%=      5-min Rain = 0
KTH1 080735Z 02008KT 01/01 A3027 RMK A01 T00090008  RH  099%=      5-min Rain = 0
KTH1 080736Z 02010KT 01/01 A3027 RMK A01 T00100008  RH  099%=      5-min Rain = 0
KTH1 080737Z 03011KT 01/01 A3027 RMK A01 T00090008  RH  099%=      5-min Rain = 0
KTH1 080738Z 03008KT 01/01 A3027 RMK A01 T00090008  RH  099%=      5-min Rain = 0
KTH1 080739Z 02006KT 01/01 A3027 RMK A01 T00100008  RH  099%=      5-min Rain = 0
KTH1 080740Z 02005G10KT 01/01 A3027 RMK A01 T00090008  RH  099%=      5-min Rain = 0
KTH1 080741Z 02007KT 01/01 A3027 RMK A01 T00100008  RH  099%=      5-min Rain = 0
KTH1 080742Z 02007KT 01/01 A3027 RMK A01 T00090008  RH  099%=      5-min Rain = 0
KTH1 080743Z 02007KT 01/01 A3027 RMK A01 T00100008  RH  099%=      5-min Rain = 0.01
KTH1 080744Z 01006KT 01/01 A3027 RMK A01 T00100008  RH  099%=      5-min Rain = 0
KTH1 080745Z 01006KT 01/01 A3027 RMK A01 T00100008  RH  099%=      5-min Rain = 0
KTH1 080746Z 01006KT 01/01 A3027 RMK A01 T00100008  RH  099%=      5-min Rain = 0
KTH1 080747Z 01005KT 01/01 A3027 RMK A01 T00100009  RH  099%=      5-min Rain = 0
KTH1 080748Z 01006G11KT 01/01 A3027 RMK A01 T00100008  RH  099%=      5-min Rain = 0
KTH1 080749Z 01009KT 01/01 A3027 RMK A01 T00100009  RH  099%=      5-min Rain = 0
KTH1 080750Z 01009KT 01/01 A3027 RMK A01 T00100009  RH  099%=      5-min Rain = 0
KTH1 080751Z 01009KT 01/01 A3027 RMK A01 T00100008  RH  099%=      5-min Rain = 0
KTH1 080752Z 01008KT 01/01 A3028 RMK A01 T00100009  RH  099%=      5-min Rain = 0
KTH1 080753Z 36008KT 01/01 A3028 RMK A01 T00100008  RH  099%=      5-min Rain = 0
KTH1 080754Z 00006KT 01/01 A3028 RMK A01 T00100009  RH  099%=      5-min Rain = 0
KTH1 080755Z 00006KT 01/01 A3028 RMK A01 T00100008  RH  099%=      5-min Rain = 0
KTH1 080756Z 00008KT 01/01 A3028 RMK A01 T00100008  RH  099%=      5-min Rain = 0
KTH1 080757Z 00007KT 01/01 A3028 RMK A01 T00100008  RH  099%=      5-min Rain = 0
KTH1 080758Z 00008KT 01/01 A3028 RMK A01 T00100008  RH  099%=      5-min Rain = 0
KTH1 080759Z 01009KT 01/01 A3028 RMK A01 T00100009  RH  099%=      5-min Rain = 0
KTH1 080800Z 01009KT 01/01 A3028 RMK A01 T00100009  RH  099%=      5-min Rain = 0
KTH1 080801Z 01005KT 01/01 A3028 RMK A01 T00100009  RH  099%=      5-min Rain = 0.01
KTH1 080802Z 01004KT 01/01 A3028 RMK A01 T00100009  RH  099%=      5-min Rain = 0
KTH1 080803Z 01007KT 01/01 A3028 RMK A01 T00100008  RH  099%=      5-min Rain = 0
KTH1 080804Z 01008KT 01/01 A3028 RMK A01 T00100008  RH  099%=      5-min Rain = 0
KTH1 080805Z 02008G13KT 01/01 A3028 RMK A01 T00100009  RH  099%=      5-min Rain = 0
KTH1 080806Z 01007KT 01/01 A3028 RMK A01 T00100009  RH  099%=      5-min Rain = 0
KTH1 080807Z 02006KT 01/01 A3028 RMK A01 T00100009  RH  099%=      5-min Rain = 0
KTH1 080808Z 00005KT 01/01 A3028 RMK A01 T00100009  RH  099%=      5-min Rain = 0
KTH1 080809Z 01005G10KT 01/01 A3028 RMK A01 T00100008  RH  099%=      5-min Rain = 0
KTH1 080810Z 01007KT 01/01 A3028 RMK A01 T00100009  RH  099%=      5-min Rain = 0
KTH1 080811Z 00008G13KT 01/01 A3028 RMK A01 T00100008  RH  099%=      5-min Rain = 0
KTH1 080812Z 36008KT 01/01 A3028 RMK A01 T00100009  RH  099%=      5-min Rain = 0
KTH1 080813Z 01007KT 01/01 A3028 RMK A01 T00100008  RH  099%=      5-min Rain = 0
KTH1 080814Z 01008KT 01/01 A3028 RMK A01 T00100009  RH  099%=      5-min Rain = 0
KTH1 080815Z 01007KT 01/01 A3028 RMK A01 T00100008  RH  099%=      5-min Rain = 0
KTH1 080816Z 00007KT 01/01 A3028 RMK A01 T00100009  RH  099%=      5-min Rain = 0
KTH1 080817Z 01007KT 01/01 A3028 RMK A01 T00100009  RH  099%=      5-min Rain = 0
KTH1 080818Z 01008KT 01/01 A3028 RMK A01 T00100009  RH  099%=      5-min Rain = 0
KTH1 080819Z 01007KT 01/01 A3028 RMK A01 T00100009  RH  099%=      5-min Rain = 0
KTH1 080820Z 36005KT 01/01 A3029 RMK A01 T00100009  RH  099%=      5-min Rain = 0
KTH1 080821Z 00005KT 01/01 A3029 RMK A01 T00110009  RH  099%=      5-min Rain = 0
KTH1 080822Z 01006KT 01/01 A3029 RMK A01 T00100009  RH  099%=      5-min Rain = 0.01
KTH1 080823Z 00004KT 01/01 A3029 RMK A01 T00110009  RH  099%=      5-min Rain = 0
KTH1 080824Z 01006KT 01/01 A3029 RMK A01 T00110009  RH  099%=      5-min Rain = 0
KTH1 080825Z 36006KT 01/01 A3029 RMK A01 T00110010  RH  099%=      5-min Rain = 0
KTH1 080826Z 36005KT 01/01 A3028 RMK A01 T00110010  RH  099%=      5-min Rain = 0
KTH1 080827Z 00007KT 01/01 A3028 RMK A01 T00110010  RH  099%=      5-min Rain = 0
KTH1 080828Z 36005KT 01/01 A3028 RMK A01 T00110009  RH  099%=      5-min Rain = 0
KTH1 080829Z 00008KT 01/01 A3028 RMK A01 T00110010  RH  099%=      5-min Rain = 0
KTH1 080830Z 02009KT 01/01 A3028 RMK A01 T00110009  RH  099%=      5-min Rain = 0
KTH1 080831Z 01007KT 01/01 A3028 RMK A01 T00110009  RH  099%=      5-min Rain = 0
KTH1 080832Z 02005KT 01/01 A3028 RMK A01 T00100009  RH  099%=      5-min Rain = 0.01
KTH1 080833Z 01004KT 01/01 A3028 RMK A01 T00100009  RH  099%=      5-min Rain = 0
KTH1 080834Z 00006KT 01/01 A3028 RMK A01 T00100009  RH  099%=      5-min Rain = 0
KTH1 080835Z 01005KT 01/01 A3028 RMK A01 T00110009  RH  099%=      5-min Rain = 0
KTH1 080836Z 00007KT 01/01 A3028 RMK A01 T00110009  RH  099%=      5-min Rain = 0
KTH1 080837Z 35009KT 01/01 A3028 RMK A01 T00110010  RH  099%=      5-min Rain = 0
KTH1 080838Z 00008KT 01/01 A3028 RMK A01 T00110010  RH  099%=      5-min Rain = 0.01
KTH1 080839Z 00008KT 01/01 A3028 RMK A01 T00110010  RH  099%=      5-min Rain = 0
KTH1 080840Z 36006G11KT 01/01 A3028 RMK A01 T00110010  RH  099%=      5-min Rain = 0
KTH1 080841Z 00008KT 01/01 A3028 RMK A01 T00110010  RH  099%=      5-min Rain = 0
KTH1 080842Z 36007KT 01/01 A3028 RMK A01 T00110010  RH  099%=      5-min Rain = 0
KTH1 080843Z 36006KT 01/01 A3028 RMK A01 T00110010  RH  099%=      5-min Rain = 0
KTH1 080844Z 36008KT 01/01 A3028 RMK A01 T00110010  RH  099%=      5-min Rain = 0.01
KTH1 080845Z 00006KT 01/01 A3028 RMK A01 T00110010  RH  099%=      5-min Rain = 0
KTH1 080846Z 01005KT 01/01 A3028 RMK A01 T00110010  RH  099%=      5-min Rain = 0
KTH1 080847Z 01009KT 01/01 A3028 RMK A01 T00110009  RH  099%=      5-min Rain = 0
KTH1 080848Z 01008KT 01/01 A3028 RMK A01 T00110010  RH  099%=      5-min Rain = 0
KTH1 080849Z 01004KT 01/01 A3028 RMK A01 T00110009  RH  099%=      5-min Rain = 0
KTH1 080850Z 01006KT 01/01 A3028 RMK A01 T00110010  RH  099%=      5-min Rain = 0
KTH1 080851Z 00007KT 01/01 A3028 RMK A01 T00110009  RH  099%=      5-min Rain = 0
KTH1 080852Z 01008KT 01/01 A3028 RMK A01 T00110010  RH  099%=      5-min Rain = 0
KTH1 080853Z 01005KT 01/01 A3028 RMK A01 T00110010  RH  099%=      5-min Rain = 0
KTH1 080854Z 02006KT 01/01 A3028 RMK A01 T00110009  RH  099%=      5-min Rain = 0
KTH1 080855Z 00006KT 01/01 A3028 RMK A01 T00110009  RH  099%=      5-min Rain = 0
KTH1 080856Z 01006KT 01/01 A3028 RMK A01 T00110010  RH  099%=      5-min Rain = 0
KTH1 080857Z 02009KT 01/01 A3028 RMK A01 T00110010  RH  099%=      5-min Rain = 0
KTH1 080858Z 01005KT 01/01 A3028 RMK A01 T00110010  RH  099%=      5-min Rain = 0
KTH1 080859Z 01007KT 01/01 A3028 RMK A01 T00110010  RH  099%=      5-min Rain = 0
KTH1 080900Z 01006KT 01/01 A3028 RMK A01 T00110010  RH  099%=      5-min Rain = 0.01
KTH1 080901Z 01007KT 01/01 A3028 RMK A01 T00110010  RH  099%=      5-min Rain = 0
KTH1 080902Z 01008KT 01/01 A3028 RMK A01 T00110010  RH  099%=      5-min Rain = 0
KTH1 080903Z 01006KT 01/01 A3028 RMK A01 T00110010  RH  099%=      5-min Rain = 0
KTH1 080904Z 00005KT 01/01 A3028 RMK A01 T00110009  RH  099%=      5-min Rain = 0
KTH1 080905Z 00007KT 01/01 A3028 RMK A01 T00110010  RH  099%=      5-min Rain = 0
KTH1 080906Z 00007KT 01/01 A3028 RMK A01 T00110010  RH  099%=      5-min Rain = 0
KTH1 080907Z 00008KT 01/01 A3028 RMK A01 T00120010  RH  099%=      5-min Rain = 0
KTH1 080908Z 01009KT 01/01 A3028 RMK A01 T00120010  RH  099%=      5-min Rain = 0
KTH1 080909Z 01009KT 01/01 A3027 RMK A01 T00110010  RH  099%=      5-min Rain = 0
KTH1 080910Z 01007KT 01/01 A3027 RMK A01 T00110010  RH  099%=      5-min Rain = 0
KTH1 080911Z 02005KT 01/01 A3027 RMK A01 T00110010  RH  099%=      5-min Rain = 0
KTH1 080912Z 01008KT 01/01 A3027 RMK A01 T00110010  RH  099%=      5-min Rain = 0.01
KTH1 080913Z 01007KT 01/01 A3027 RMK A01 T00110010  RH  099%=      5-min Rain = 0
KTH1 080914Z 01008KT 01/01 A3027 RMK A01 T00110010  RH  099%=      5-min Rain = 0
KTH1 080915Z 02010KT 01/01 A3027 RMK A01 T00110010  RH  099%=      5-min Rain = 0
KTH1 080916Z 01010G15KT 01/01 A3027 RMK A01 T00110010  RH  099%=      5-min Rain = 0
KTH1 080917Z 02012KT 01/01 A3027 RMK A01 T00100009  RH  099%=      5-min Rain = 0
KTH1 080918Z 02009KT 01/01 A3027 RMK A01 T00110009  RH  099%=      5-min Rain = 0
KTH1 080919Z 02007KT 01/01 A3027 RMK A01 T00100009  RH  099%=      5-min Rain = 0
KTH1 080920Z 02011KT 01/01 A3026 RMK A01 T00100009  RH  099%=      5-min Rain = 0
KTH1 080921Z 02010KT 01/01 A3026 RMK A01 T00110009  RH  099%=      5-min Rain = 0
KTH1 080922Z 02012KT 01/01 A3026 RMK A01 T00100009  RH  099%=      5-min Rain = 0
KTH1 080923Z 01010KT 01/01 A3026 RMK A01 T00100009  RH  099%=      5-min Rain = 0
KTH1 080924Z 02006KT 01/01 A3027 RMK A01 T00100009  RH  099%=      5-min Rain = 0
KTH1 080925Z 02008KT 01/01 A3027 RMK A01 T00100009  RH  099%=      5-min Rain = 0
KTH1 080926Z 02009KT 01/01 A3027 RMK A01 T00100009  RH  099%=      5-min Rain = 0
KTH1 080927Z 01009KT 01/01 A3027 RMK A01 T00100009  RH  099%=      5-min Rain = 0.01
KTH1 080928Z 02008KT 01/01 A3027 RMK A01 T00100009  RH  099%=      5-min Rain = 0
KTH1 080929Z 02009KT 01/01 A3026 RMK A01 T00100009  RH  099%=      5-min Rain = 0
KTH1 080930Z 02011KT 01/01 A3026 RMK A01 T00100009  RH  099%=      5-min Rain = 0
KTH1 080931Z 02008KT 01/01 A3026 RMK A01 T00100009  RH  099%=      5-min Rain = 0
KTH1 080932Z 01010KT 01/01 A3026 RMK A01 T00110009  RH  099%=      5-min Rain = 0.01
KTH1 080933Z 02010KT 01/01 A3026 RMK A01 T00110009  RH  099%=      5-min Rain = 0
KTH1 080934Z 02010G15KT 01/01 A3026 RMK A01 T00100009  RH  099%=      5-min Rain = 0
KTH1 080935Z 02010KT 01/01 A3026 RMK A01 T00100009  RH  099%=      5-min Rain = 0
KTH1 080936Z 02010KT 01/01 A3026 RMK A01 T00100009  RH  099%=      5-min Rain = 0
KTH1 080937Z 02011KT 01/01 A3026 RMK A01 T00100009  RH  099%=      5-min Rain = 0.01
KTH1 080938Z 02011KT 01/01 A3026 RMK A01 T00100009  RH  099%=      5-min Rain = 0
KTH1 080939Z 02010KT 01/01 A3026 RMK A01 T00100008  RH  099%=      5-min Rain = 0
KTH1 080940Z 02010KT 01/01 A3026 RMK A01 T00100009  RH  099%=      5-min Rain = 0
KTH1 080941Z 02008G14KT 01/01 A3026 RMK A01 T00100008  RH  099%=      5-min Rain = 0
KTH1 080942Z 02011G17KT 01/01 A3026 RMK A01 T00100008  RH  099%=      5-min Rain = 0.01
KTH1 080943Z 02011KT 01/01 A3026 RMK A01 T00100008  RH  099%=      5-min Rain = 0
KTH1 080944Z 02008KT 01/01 A3026 RMK A01 T00100008  RH  099%=      5-min Rain = 0
KTH1 080945Z 02012KT 01/01 A3026 RMK A01 T00100008  RH  099%=      5-min Rain = 0
KTH1 080946Z 02010KT 01/01 A3026 RMK A01 T00100008  RH  099%=      5-min Rain = 0
KTH1 080947Z 02009KT 01/01 A3026 RMK A01 T00100008  RH  099%=      5-min Rain = 0
KTH1 080948Z 01012G17KT 01/01 A3025 RMK A01 T00100008  RH  099%=      5-min Rain = 0
KTH1 080949Z 03011KT 01/01 A3025 RMK A01 T00100008  RH  099%=      5-min Rain = 0
KTH1 080950Z 02012G18KT 01/01 A3025 RMK A01 T00100008  RH  099%=      5-min Rain = 0
KTH1 080951Z 02012KT 01/01 A3025 RMK A01 T00100008  RH  099%=      5-min Rain = 0
KTH1 080952Z 02012KT 01/01 A3025 RMK A01 T00100008  RH  099%=      5-min Rain = 0
KTH1 080953Z 02012KT 01/01 A3025 RMK A01 T00100008  RH  098%=      5-min Rain = 0
KTH1 080954Z 02013KT 01/01 A3025 RMK A01 T00100008  RH  098%=      5-min Rain = 0
KTH1 080955Z 01012G18KT 01/01 A3025 RMK A01 T00100008  RH  098%=      5-min Rain = 0
KTH1 080956Z 02009G14KT 01/01 A3025 RMK A01 T00100008  RH  098%=      5-min Rain = 0
KTH1 080957Z 02009G14KT 01/01 A3025 RMK A01 T00100008  RH  098%=      5-min Rain = 0
KTH1 080958Z 01010KT 01/01 A3025 RMK A01 T00100008  RH  098%=      5-min Rain = 0.01
KTH1 080959Z 02013KT 01/01 A3025 RMK A01 T00100008  RH  098%=      5-min Rain = 0
KTH1 081000Z 02013KT 01/01 A3025 RMK A01 T00100007  RH  098%=      5-min Rain = 0
KTH1 081001Z 02009KT 01/01 A3025 RMK A01 T00100007  RH  098%=      5-min Rain = 0
KTH1 081002Z 00007G12KT 01/01 A3025 RMK A01 T00090007  RH  098%=      5-min Rain = 0
KTH1 081003Z 01009G14KT 01/01 A3025 RMK A01 T00100007  RH  098%=      5-min Rain = 0
KTH1 081004Z 01008G13KT 01/01 A3025 RMK A01 T00100007  RH  098%=      5-min Rain = 0
KTH1 081005Z 02012G17KT 01/01 A3025 RMK A01 T00100007  RH  098%=      5-min Rain = 0
KTH1 081006Z 03011G16KT 01/01 A3025 RMK A01 T00100007  RH  098%=      5-min Rain = 0
KTH1 081007Z 01013KT 01/01 A3025 RMK A01 T00090007  RH  098%=      5-min Rain = 0
KTH1 081008Z 01010KT 01/01 A3025 RMK A01 T00100007  RH  098%=      5-min Rain = 0
KTH1 081009Z 02010KT 01/01 A3025 RMK A01 T00090007  RH  098%=      5-min Rain = 0.01
KTH1 081010Z 01009KT 01/01 A3025 RMK A01 T00090007  RH  098%=      5-min Rain = 0
KTH1 081011Z 01010KT 01/01 A3025 RMK A01 T00090007  RH  098%=      5-min Rain = 0
KTH1 081012Z 01008KT 01/01 A3025 RMK A01 T00100007  RH  098%=      5-min Rain = 0
KTH1 081013Z 01008KT 01/01 A3025 RMK A01 T00090007  RH  098%=      5-min Rain = 0
KTH1 081014Z 01010KT 01/01 A3025 RMK A01 T00090007  RH  098%=      5-min Rain = 0
KTH1 081015Z 02010G15KT 01/01 A3025 RMK A01 T00090007  RH  098%=      5-min Rain = 0
KTH1 081016Z 02012KT 01/01 A3025 RMK A01 T00090007  RH  098%=      5-min Rain = 0
KTH1 081017Z 02007KT 01/01 A3024 RMK A01 T00100007  RH  098%=      5-min Rain = 0
KTH1 081018Z 01008KT 01/01 A3024 RMK A01 T00100007  RH  098%=      5-min Rain = 0
KTH1 081019Z 01008KT 01/01 A3024 RMK A01 T00090007  RH  098%=      5-min Rain = 0
KTH1 081020Z 01008KT 01/01 A3024 RMK A01 T00090007  RH  098%=      5-min Rain = 0
KTH1 081021Z 02006KT 01/01 A3024 RMK A01 T00090007  RH  098%=      5-min Rain = 0
KTH1 081022Z 02006KT 01/01 A3024 RMK A01 T00090007  RH  098%=      5-min Rain = 0.01
KTH1 081023Z 02009G15KT 01/01 A3024 RMK A01 T00090007  RH  098%=      5-min Rain = 0
KTH1 081024Z 01011KT 01/01 A3024 RMK A01 T00100007  RH  098%=      5-min Rain = 0
KTH1 081025Z 01010KT 01/01 A3024 RMK A01 T00090007  RH  098%=      5-min Rain = 0
KTH1 081026Z 01010KT 01/01 A3024 RMK A01 T00090007  RH  098%=      5-min Rain = 0
KTH1 081027Z 02008KT 01/01 A3024 RMK A01 T00090007  RH  098%=      5-min Rain = 0
KTH1 081028Z 01009KT 01/01 A3024 RMK A01 T00090007  RH  098%=      5-min Rain = 0
KTH1 081029Z 01007KT 01/01 A3024 RMK A01 T00090007  RH  098%=      5-min Rain = 0
KTH1 081030Z 01008KT 01/01 A3024 RMK A01 T00090007  RH  098%=      5-min Rain = 0
KTH1 081031Z 02009KT 01/01 A3024 RMK A01 T00090007  RH  098%=      5-min Rain = 0
KTH1 081032Z 01008KT 01/01 A3024 RMK A01 T00090007  RH  098%=      5-min Rain = 0
KTH1 081033Z 01010KT 01/01 A3024 RMK A01 T00080006  RH  098%=      5-min Rain = 0
KTH1 081034Z 02011G18KT 01/01 A3024 RMK A01 T00090006  RH  098%=      5-min Rain = 0
KTH1 081035Z 02011G17KT 01/01 A3024 RMK A01 T00090006  RH  098%=      5-min Rain = 0
KTH1 081036Z 02010KT 01/01 A3024 RMK A01 T00090006  RH  098%=      5-min Rain = 0
KTH1 081037Z 02011G16KT 01/01 A3024 RMK A01 T00090006  RH  098%=      5-min Rain = 0
KTH1 081038Z 01010KT 01/01 A3024 RMK A01 T00090006  RH  098%=      5-min Rain = 0
KTH1 081039Z 02009KT 01/01 A3025 RMK A01 T00090006  RH  098%=      5-min Rain = 0
KTH1 081040Z 02010KT 01/01 A3025 RMK A01 T00090006  RH  098%=      5-min Rain = 0
KTH1 081041Z 02010KT 01/01 A3025 RMK A01 T00090006  RH  098%=      5-min Rain = 0
KTH1 081042Z 02010KT 01/01 A3025 RMK A01 T00090006  RH  098%=      5-min Rain = 0
KTH1 081043Z 02012KT 01/01 A3025 RMK A01 T00090006  RH  098%=      5-min Rain = 0
KTH1 081044Z 02012KT 01/01 A3025 RMK A01 T00090006  RH  098%=      5-min Rain = 0
KTH1 081045Z 01008G13KT 01/01 A3025 RMK A01 T00090006  RH  098%=      5-min Rain = 0
KTH1 081046Z 02011G16KT 01/01 A3025 RMK A01 T00080006  RH  098%=      5-min Rain = 0
KTH1 081047Z 00010KT 01/01 A3025 RMK A01 T00090006  RH  098%=      5-min Rain = 0
KTH1 081048Z 01007KT 01/01 A3025 RMK A01 T00090006  RH  098%=      5-min Rain = 0
KTH1 081049Z 02006KT 01/01 A3025 RMK A01 T00090006  RH  098%=      5-min Rain = 0
KTH1 081050Z 02009KT 01/01 A3025 RMK A01 T00090006  RH  098%=      5-min Rain = 0
KTH1 081051Z 01008G13KT 01/01 A3025 RMK A01 T00090006  RH  098%=      5-min Rain = 0
KTH1 081052Z 01012KT 01/01 A3024 RMK A01 T00090006  RH  098%=      5-min Rain = 0
KTH1 081053Z 01009KT 01/01 A3024 RMK A01 T00090006  RH  098%=      5-min Rain = 0
KTH1 081054Z 01009KT 01/01 A3025 RMK A01 T00090006  RH  098%=      5-min Rain = 0
KTH1 081055Z 00009KT 01/01 A3024 RMK A01 T00090007  RH  098%=      5-min Rain = 0
KTH1 081056Z 01009KT 01/01 A3024 RMK A01 T00090007  RH  098%=      5-min Rain = 0
KTH1 081057Z 01011KT 01/01 A3024 RMK A01 T00090007  RH  098%=      5-min Rain = 0
KTH1 081058Z 00011KT 01/01 A3024 RMK A01 T00090007  RH  098%=      5-min Rain = 0
KTH1 081059Z 01012KT 01/01 A3024 RMK A01 T00090007  RH  098%=      5-min Rain = 0
KTH1 081100Z 01010KT 01/01 A3025 RMK A01 T00090007  RH  098%=      5-min Rain = 0
KTH1 081101Z 00008G14KT 01/01 A3025 RMK A01 T00090006  RH  098%=      5-min Rain = 0
KTH1 081102Z 01006G12KT 01/01 A3025 RMK A01 T00090007  RH  098%=      5-min Rain = 0
KTH1 081103Z 01010KT 01/01 A3025 RMK A01 T00100007  RH  098%=      5-min Rain = 0
KTH1 081104Z 00009G14KT 01/01 A3025 RMK A01 T00090007  RH  098%=      5-min Rain = 0
KTH1 081105Z 01006KT 01/01 A3025 RMK A01 T00100007  RH  098%=      5-min Rain = 0
KTH1 081106Z 01007G14KT 01/01 A3025 RMK A01 T00090007  RH  098%=      5-min Rain = 0
KTH1 081107Z 02009KT 01/01 A3025 RMK A01 T00100007  RH  098%=      5-min Rain = 0
KTH1 081108Z 01008KT 01/01 A3025 RMK A01 T00100007  RH  098%=      5-min Rain = 0
KTH1 081109Z 01009KT 01/01 A3025 RMK A01 T00100008  RH  098%=      5-min Rain = 0.01
KTH1 081110Z 01010KT 01/01 A3025 RMK A01 T00100008  RH  098%=      5-min Rain = 0
KTH1 081111Z 00008KT 01/01 A3025 RMK A01 T00100007  RH  098%=      5-min Rain = 0
KTH1 081112Z 02008G13KT 01/01 A3025 RMK A01 T00100008  RH  098%=      5-min Rain = 0
KTH1 081113Z 01009G16KT 01/01 A3025 RMK A01 T00100008  RH  098%=      5-min Rain = 0
KTH1 081114Z 01009KT 01/01 A3025 RMK A01 T00100008  RH  098%=      5-min Rain = 0
KTH1 081115Z 01009KT 01/01 A3025 RMK A01 T00100008  RH  098%=      5-min Rain = 0
KTH1 081116Z 01008G13KT 01/01 A3025 RMK A01 T00100008  RH  098%=      5-min Rain = 0
KTH1 081117Z 01009KT 01/01 A3025 RMK A01 T00100008  RH  098%=      5-min Rain = 0
KTH1 081118Z 01012KT 01/01 A3025 RMK A01 T00100008  RH  098%=      5-min Rain = 0
KTH1 081119Z 01011KT 01/01 A3025 RMK A01 T00100008  RH  098%=      5-min Rain = 0
KTH1 081120Z 01010KT 01/01 A3025 RMK A01 T00100008  RH  098%=      5-min Rain = 0
KTH1 081121Z 02011KT 01/01 A3025 RMK A01 T00100008  RH  098%=      5-min Rain = 0
KTH1 081122Z 02010KT 01/01 A3025 RMK A01 T00100008  RH  098%=      5-min Rain = 0
KTH1 081123Z 01009KT 01/01 A3025 RMK A01 T00100008  RH  098%=      5-min Rain = 0
KTH1 081124Z 01010KT 01/01 A3025 RMK A01 T00100008  RH  098%=      5-min Rain = 0
KTH1 081125Z 01008G13KT 01/01 A3025 RMK A01 T00100008  RH  098%=      5-min Rain = 0
KTH1 081126Z 01011KT 01/01 A3025 RMK A01 T00100008  RH  098%=      5-min Rain = 0
KTH1 081127Z 01008KT 01/01 A3025 RMK A01 T00100008  RH  098%=      5-min Rain = 0
KTH1 081128Z 02010KT 01/01 A3025 RMK A01 T00100007  RH  098%=      5-min Rain = 0
KTH1 081129Z 01008KT 01/01 A3026 RMK A01 T00100007  RH  098%=      5-min Rain = 0
KTH1 081130Z 01012KT 01/01 A3026 RMK A01 T00100008  RH  098%=      5-min Rain = 0
KTH1 081131Z 01010KT 01/01 A3026 RMK A01 T00100007  RH  098%=      5-min Rain = 0
KTH1 081132Z 01008G13KT 01/01 A3026 RMK A01 T00100007  RH  098%=      5-min Rain = 0
KTH1 081133Z 01009G14KT 01/01 A3026 RMK A01 T00100008  RH  098%=      5-min Rain = 0
KTH1 081134Z 01009KT 01/01 A3026 RMK A01 T00100007  RH  098%=      5-min Rain = 0
KTH1 081135Z 01010KT 01/01 A3026 RMK A01 T00100008  RH  098%=      5-min Rain = 0
KTH1 081136Z 02011KT 01/01 A3026 RMK A01 T00100008  RH  098%=      5-min Rain = 0
KTH1 081137Z 01009KT 01/01 A3026 RMK A01 T00100007  RH  098%=      5-min Rain = 0
KTH1 081138Z 02008KT 01/01 A3026 RMK A01 T00100008  RH  098%=      5-min Rain = 0
KTH1 081139Z 02008KT 01/01 A3026 RMK A01 T00100007  RH  098%=      5-min Rain = 0
KTH1 081140Z 02008KT 01/01 A3026 RMK A01 T00100008  RH  098%=      5-min Rain = 0
KTH1 081141Z 01007KT 01/01 A3026 RMK A01 T00100008  RH  098%=      5-min Rain = 0
KTH1 081142Z 01008KT 01/01 A3026 RMK A01 T00100008  RH  098%=      5-min Rain = 0
KTH1 081143Z 02007KT 01/01 A3026 RMK A01 T00100007  RH  098%=      5-min Rain = 0
KTH1 081144Z 01007KT 01/01 A3026 RMK A01 T00100008  RH  098%=      5-min Rain = 0
KTH1 081145Z 02008KT 01/01 A3026 RMK A01 T00100008  RH  098%=      5-min Rain = 0
KTH1 081146Z 01008KT 01/01 A3026 RMK A01 T00100008  RH  099%=      5-min Rain = 0
KTH1 081147Z 35006KT 01/01 A3026 RMK A01 T00100008  RH  099%=      5-min Rain = 0
KTH1 081148Z 00006KT 01/01 A3026 RMK A01 T00100008  RH  099%=      5-min Rain = 0
KTH1 081149Z 01007KT 01/01 A3026 RMK A01 T00110009  RH  099%=      5-min Rain = 0
KTH1 081150Z 00007KT 01/01 A3026 RMK A01 T00110009  RH  099%=      5-min Rain = 0
KTH1 081151Z 02009G15KT 01/01 A3026 RMK A01 T00110009  RH  099%=      5-min Rain = 0
KTH1 081152Z 01011G17KT 01/01 A3026 RMK A01 T00110009  RH  099%=      5-min Rain = 0
KTH1 081153Z 01010G18KT 01/01 A3026 RMK A01 T00100008  RH  099%=      5-min Rain = 0
KTH1 081154Z 01014G19KT 01/01 A3026 RMK A01 T00100008  RH  099%=      5-min Rain = 0
KTH1 081155Z 01011KT 01/01 A3026 RMK A01 T00090007  RH  098%=      5-min Rain = 0
KTH1 081156Z 01011KT 01/01 A3026 RMK A01 T00090007  RH  098%=      5-min Rain = 0
KTH1 081157Z 01012G17KT 01/01 A3026 RMK A01 T00090007  RH  098%=      5-min Rain = 0
KTH1 081158Z 01010G17KT 01/01 A3026 RMK A01 T00090007  RH  098%=      5-min Rain = 0.01
KTH1 081159Z 01014KT 01/01 A3026 RMK A01 T00090007  RH  098%=      5-min Rain = 0
KTH1 081200Z 01011KT 01/01 A3026 RMK A01 T00090006  RH  098%=      5-min Rain = 0
KTH1 081201Z 02009KT 01/01 A3026 RMK A01 T00090006  RH  098%=      5-min Rain = 0
KTH1 081202Z 01007KT 01/01 A3026 RMK A01 T00090006  RH  098%=      5-min Rain = 0
KTH1 081203Z 01012KT 01/01 A3026 RMK A01 T00090006  RH  098%=      5-min Rain = 0
KTH1 081204Z 02012KT 01/01 A3026 RMK A01 T00090006  RH  098%=      5-min Rain = 0
KTH1 081205Z 01008KT 01/01 A3027 RMK A01 T00090007  RH  098%=      5-min Rain = 0
KTH1 081206Z 36009KT 01/01 A3027 RMK A01 T00090006  RH  098%=      5-min Rain = 0
KTH1 081207Z 00009KT 01/01 A3027 RMK A01 T00090006  RH  098%=      5-min Rain = 0
KTH1 081208Z 01007G12KT 01/01 A3027 RMK A01 T00090007  RH  098%=      5-min Rain = 0
KTH1 081209Z 01009KT 01/01 A3027 RMK A01 T00090006  RH  098%=      5-min Rain = 0
KTH1 081210Z 01008KT 01/01 A3027 RMK A01 T00090007  RH  098%=      5-min Rain = 0
KTH1 081211Z 01010KT 01/01 A3027 RMK A01 T00090006  RH  098%=      5-min Rain = 0
KTH1 081212Z 01009KT 01/01 A3027 RMK A01 T00090006  RH  098%=      5-min Rain = 0
KTH1 081213Z 01009KT 01/01 A3027 RMK A01 T00090006  RH  098%=      5-min Rain = 0
KTH1 081214Z 02011KT 01/01 A3027 RMK A01 T00090006  RH  098%=      5-min Rain = 0
KTH1 081215Z 01008KT 01/01 A3027 RMK A01 T00090007  RH  098%=      5-min Rain = 0.01
KTH1 081216Z 01008KT 01/01 A3027 RMK A01 T00090006  RH  098%=      5-min Rain = 0
KTH1 081217Z 02008G13KT 01/01 A3027 RMK A01 T00090006  RH  098%=      5-min Rain = 0
KTH1 081218Z 01009KT 01/01 A3027 RMK A01 T00090006  RH  098%=      5-min Rain = 0
KTH1 081219Z 01009KT 01/01 A3027 RMK A01 T00090007  RH  098%=      5-min Rain = 0
KTH1 081220Z 00010KT 01/01 A3027 RMK A01 T00090007  RH  098%=      5-min Rain = 0
KTH1 081221Z 01008KT 01/01 A3027 RMK A01 T00090006  RH  098%=      5-min Rain = 0
KTH1 081222Z 01008KT 01/01 A3027 RMK A01 T00090007  RH  098%=      5-min Rain = 0
KTH1 081223Z 01009KT 01/01 A3027 RMK A01 T00090007  RH  098%=      5-min Rain = 0
KTH1 081224Z 00006KT 01/01 A3027 RMK A01 T00090007  RH  098%=      5-min Rain = 0
KTH1 081225Z 36007KT 01/01 A3027 RMK A01 T00090007  RH  098%=      5-min Rain = 0
KTH1 081226Z 00008KT 01/01 A3027 RMK A01 T00090007  RH  098%=      5-min Rain = 0
KTH1 081227Z 35008KT 01/01 A3026 RMK A01 T00090007  RH  099%=      5-min Rain = 0
KTH1 081228Z 35009KT 01/01 A3026 RMK A01 T00100008  RH  099%=      5-min Rain = 0
KTH1 081229Z 36007G13KT 01/01 A3026 RMK A01 T00100008  RH  099%=      5-min Rain = 0.01
KTH1 081230Z 35011KT 01/01 A3026 RMK A01 T00100008  RH  099%=      5-min Rain = 0
KTH1 081231Z 35009KT 01/01 A3026 RMK A01 T00100008  RH  099%=      5-min Rain = 0
KTH1 081232Z 36012KT 01/01 A3026 RMK A01 T00100008  RH  099%=      5-min Rain = 0
KTH1 081233Z 36010KT 01/01 A3027 RMK A01 T00100008  RH  099%=      5-min Rain = 0
KTH1 081234Z 00006KT 01/01 A3027 RMK A01 T00100008  RH  099%=      5-min Rain = 0
KTH1 081235Z 01007KT 01/01 A3027 RMK A01 T00100008  RH  099%=      5-min Rain = 0
KTH1 081236Z 35008KT 01/01 A3027 RMK A01 T00100008  RH  099%=      5-min Rain = 0
KTH1 081237Z 01007KT 01/01 A3027 RMK A01 T00100008  RH  099%=      5-min Rain = 0
KTH1 081238Z 36011G17KT 01/01 A3027 RMK A01 T00100008  RH  099%=      5-min Rain = 0
KTH1 081239Z 36010G15KT 01/01 A3027 RMK A01 T00100008  RH  099%=      5-min Rain = 0
KTH1 081240Z 36009KT 01/01 A3027 RMK A01 T00100008  RH  099%=      5-min Rain = 0
KTH1 081241Z 36011KT 01/01 A3027 RMK A01 T00100008  RH  099%=      5-min Rain = 0
KTH1 081242Z 01008KT 01/01 A3027 RMK A01 T00100008  RH  099%=      5-min Rain = 0
KTH1 081243Z 00008KT 01/01 A3027 RMK A01 T00100008  RH  099%=      5-min Rain = 0
KTH1 081244Z 36010KT 01/01 A3027 RMK A01 T00100008  RH  099%=      5-min Rain = 0
KTH1 081245Z 36011KT 01/01 A3027 RMK A01 T00100008  RH  099%=      5-min Rain = 0
KTH1 081246Z 00011KT 01/01 A3027 RMK A01 T00100008  RH  099%=      5-min Rain = 0
KTH1 081247Z 00009KT 01/01 A3027 RMK A01 T00090008  RH  099%=      5-min Rain = 0.01
KTH1 081248Z 00010KT 01/01 A3027 RMK A01 T00090008  RH  099%=      5-min Rain = 0
KTH1 081249Z 36008KT 01/01 A3027 RMK A01 T00090008  RH  099%=      5-min Rain = 0
KTH1 081250Z 01009G14KT 01/01 A3027 RMK A01 T00090008  RH  099%=      5-min Rain = 0
KTH1 081251Z 00011KT 01/01 A3027 RMK A01 T00090008  RH  099%=      5-min Rain = 0
KTH1 081252Z 00012KT 01/01 A3027 RMK A01 T00090008  RH  099%=      5-min Rain = 0
KTH1 081253Z 00009KT 01/01 A3027 RMK A01 T00090007  RH  099%=      5-min Rain = 0.01
KTH1 081254Z 35009KT 01/01 A3027 RMK A01 T00090007  RH  099%=      5-min Rain = 0
KTH1 081255Z 36009KT 01/01 A3027 RMK A01 T00090007  RH  099%=      5-min Rain = 0
KTH1 081256Z 35009KT 01/01 A3027 RMK A01 T00090007  RH  099%=      5-min Rain = 0
KTH1 081257Z 35009KT 01/01 A3027 RMK A01 T00100008  RH  099%=      5-min Rain = 0
KTH1 081258Z 00006KT 01/01 A3027 RMK A01 T00100008  RH  099%=      5-min Rain = 0
KTH1 081259Z 35006KT 01/01 A3027 RMK A01 T00100008  RH  099%=      5-min Rain = 0
KTH1 081300Z 36010KT 01/01 A3027 RMK A01 T00090008  RH  099%=      5-min Rain = 0.01
KTH1 081301Z 35012KT 01/01 A3027 RMK A01 T00090008  RH  099%=      5-min Rain = 0
KTH1 081302Z 35012KT 01/01 A3027 RMK A01 T00090007  RH  099%=      5-min Rain = 0
KTH1 081303Z 35011KT 01/01 A3027 RMK A01 T00090007  RH  099%=      5-min Rain = 0
KTH1 081304Z 35009KT 01/01 A3027 RMK A01 T00090007  RH  099%=      5-min Rain = 0
KTH1 081305Z 00008KT 01/01 A3027 RMK A01 T00090007  RH  099%=      5-min Rain = 0
KTH1 081306Z 35009KT 01/01 A3027 RMK A01 T00090007  RH  099%=      5-min Rain = 0
KTH1 081307Z 00008KT 01/01 A3027 RMK A01 T00090007  RH  099%=      5-min Rain = 0
KTH1 081308Z 35011KT 01/01 A3027 RMK A01 T00080007  RH  099%=      5-min Rain = 0
KTH1 081309Z 35011G16KT 01/01 A3027 RMK A01 T00080007  RH  099%=      5-min Rain = 0
KTH1 081310Z 35014KT 01/01 A3027 RMK A01 T00080006  RH  099%=      5-min Rain = 0
KTH1 081311Z 35011KT 01/01 A3027 RMK A01 T00070006  RH  099%=      5-min Rain = 0
KTH1 081312Z 35011KT 01/01 A3027 RMK A01 T00070005  RH  099%=      5-min Rain = 0
KTH1 081313Z 35012KT 01/01 A3027 RMK A01 T00070005  RH  099%=      5-min Rain = 0
KTH1 081314Z 35012KT 01/01 A3027 RMK A01 T00070006  RH  099%=      5-min Rain = 0.01
KTH1 081315Z 35010KT 01/01 A3027 RMK A01 T00070005  RH  099%=      5-min Rain = 0
KTH1 081316Z 35010KT 01/01 A3027 RMK A01 T00070005  RH  099%=      5-min Rain = 0
KTH1 081317Z 36010KT 01/01 A3027 RMK A01 T00070005  RH  099%=      5-min Rain = 0
KTH1 081318Z 35011KT 01/01 A3027 RMK A01 T00070005  RH  099%=      5-min Rain = 0
KTH1 081319Z 35010KT 01/01 A3027 RMK A01 T00060005  RH  099%=      5-min Rain = 0
KTH1 081320Z 35013KT 01/01 A3027 RMK A01 T00060005  RH  099%=      5-min Rain = 0
KTH1 081321Z 35013KT 01/01 A3027 RMK A01 T00060005  RH  099%=      5-min Rain = 0
KTH1 081322Z 00008KT 01/00 A3027 RMK A01 T00060004  RH  099%=      5-min Rain = 0
KTH1 081323Z 35011KT 01/01 A3027 RMK A01 T00060005  RH  099%=      5-min Rain = 0
KTH1 081324Z 35011KT 01/01 A3027 RMK A01 T00070005  RH  099%=      5-min Rain = 0
KTH1 081325Z 36009KT 01/01 A3027 RMK A01 T00060005  RH  099%=      5-min Rain = 0
KTH1 081326Z 35008KT 01/01 A3027 RMK A01 T00060005  RH  099%=      5-min Rain = 0
KTH1 081327Z 35010KT 01/01 A3028 RMK A01 T00060005  RH  099%=      5-min Rain = 0
KTH1 081328Z 35011KT 01/01 A3028 RMK A01 T00060005  RH  099%=      5-min Rain = 0
KTH1 081329Z 35011G16KT 01/01 A3028 RMK A01 T00070005  RH  099%=      5-min Rain = 0
KTH1 081330Z 35010KT 01/01 A3028 RMK A01 T00060005  RH  099%=      5-min Rain = 0
KTH1 081331Z 34010KT 01/00 A3028 RMK A01 T00060004  RH  099%=      5-min Rain = 0
KTH1 081332Z 35013KT 01/00 A3028 RMK A01 T00060004  RH  099%=      5-min Rain = 0
KTH1 081333Z 36009G14KT 01/00 A3028 RMK A01 T00060004  RH  099%=      5-min Rain = 0
KTH1 081334Z 36009G14KT 01/00 A3028 RMK A01 T00060004  RH  099%=      5-min Rain = 0
KTH1 081335Z 35010KT 01/00 A3028 RMK A01 T00060004  RH  099%=      5-min Rain = 0
KTH1 081336Z 35013KT 01/00 A3028 RMK A01 T00060004  RH  099%=      5-min Rain = 0
KTH1 081337Z 35011G16KT 01/00 A3028 RMK A01 T00050004  RH  099%=      5-min Rain = 0
KTH1 081338Z 36009G14KT 01/00 A3028 RMK A01 T00050004  RH  099%=      5-min Rain = 0
KTH1 081339Z 00009KT 01/00 A3028 RMK A01 T00050004  RH  099%=      5-min Rain = 0
KTH1 081340Z 36010G15KT 01/00 A3028 RMK A01 T00050003  RH  099%=      5-min Rain = 0
KTH1 081341Z 36011KT 01/00 A3028 RMK A01 T00050003  RH  099%=      5-min Rain = 0
KTH1 081342Z 35010KT 01/00 A3028 RMK A01 T00050003  RH  099%=      5-min Rain = 0
KTH1 081343Z 35007KT 01/00 A3028 RMK A01 T00050003  RH  099%=      5-min Rain = 0
KTH1 081344Z 35010KT 01/00 A3028 RMK A01 T00050003  RH  099%=      5-min Rain = 0
KTH1 081345Z 35006KT 01/00 A3028 RMK A01 T00050004  RH  099%=      5-min Rain = 0
KTH1 081346Z 34009KT 01/00 A3028 RMK A01 T00050003  RH  099%=      5-min Rain = 0
KTH1 081347Z 35010KT 01/00 A3028 RMK A01 T00060004  RH  099%=      5-min Rain = 0
KTH1 081348Z 35009KT 01/00 A3028 RMK A01 T00050004  RH  099%=      5-min Rain = 0
KTH1 081349Z 35010KT 01/00 A3028 RMK A01 T00060004  RH  099%=      5-min Rain = 0
KTH1 081350Z 35008KT 01/00 A3028 RMK A01 T00060004  RH  099%=      5-min Rain = 0
KTH1 081351Z 35009G14KT 01/00 A3028 RMK A01 T00060004  RH  099%=      5-min Rain = 0
KTH1 081352Z 00011KT 01/00 A3028 RMK A01 T00060004  RH  099%=      5-min Rain = 0
KTH1 081353Z 36011KT 01/00 A3028 RMK A01 T00060004  RH  099%=      5-min Rain = 0
KTH1 081354Z 36010KT 01/00 A3028 RMK A01 T00050004  RH  099%=      5-min Rain = 0.01
KTH1 081355Z 35010KT 01/00 A3028 RMK A01 T00050003  RH  099%=      5-min Rain = 0
KTH1 081356Z 34010KT 01/00 A3028 RMK A01 T00050003  RH  099%=      5-min Rain = 0
KTH1 081357Z 36008KT 01/00 A3028 RMK A01 T00050003  RH  099%=      5-min Rain = 0
KTH1 081358Z 36010KT 01/00 A3029 RMK A01 T00050003  RH  099%=      5-min Rain = 0
KTH1 081359Z 35008KT 01/00 A3029 RMK A01 T00050003  RH  099%=      5-min Rain = 0
KTH1 081400Z 35008KT 01/00 A3029 RMK A01 T00050003  RH  099%=      5-min Rain = 0
KTH1 081401Z 35010KT 01/00 A3029 RMK A01 T00050003  RH  099%=      5-min Rain = 0
KTH1 081402Z 35011KT 01/00 A3029 RMK A01 T00050003  RH  099%=      5-min Rain = 0
KTH1 081403Z 35010KT 00/00 A3029 RMK A01 T00040003  RH  099%=      5-min Rain = 0
KTH1 081404Z 35008KT 00/00 A3029 RMK A01 T00040003  RH  099%=      5-min Rain = 0
KTH1 081405Z 35009KT 00/00 A3029 RMK A01 T00040003  RH  099%=      5-min Rain = 0
KTH1 081406Z 35009KT 00/00 A3029 RMK A01 T00040003  RH  099%=      5-min Rain = 0
KTH1 081407Z 35010KT 00/00 A3029 RMK A01 T00040003  RH  099%=      5-min Rain = 0
KTH1 081408Z 34010G15KT 00/00 A3029 RMK A01 T00040002  RH  099%=      5-min Rain = 0
KTH1 081409Z 35010G15KT 00/00 A3029 RMK A01 T00040002  RH  099%=      5-min Rain = 0
KTH1 081410Z 35010KT 00/00 A3029 RMK A01 T00040002  RH  099%=      5-min Rain = 0
KTH1 081411Z 35008KT 00/00 A3029 RMK A01 T00040002  RH  099%=      5-min Rain = 0
KTH1 081412Z 34007G12KT 00/00 A3029 RMK A01 T00040003  RH  099%=      5-min Rain = 0
KTH1 081413Z 34008KT 01/00 A3029 RMK A01 T00050003  RH  099%=      5-min Rain = 0
KTH1 081414Z 34010KT 00/00 A3029 RMK A01 T00040003  RH  099%=      5-min Rain = 0
KTH1 081415Z 34009KT 00/00 A3029 RMK A01 T00040003  RH  099%=      5-min Rain = 0
KTH1 081416Z 34010KT 00/00 A3029 RMK A01 T00040002  RH  099%=      5-min Rain = 0
KTH1 081417Z 35011KT 00/00 A3029 RMK A01 T00040002  RH  099%=      5-min Rain = 0
KTH1 081418Z 36012KT 00/00 A303 RMK A01 T00040002  RH  099%=      5-min Rain = 0
KTH1 081419Z 35010G15KT 00/00 A303 RMK A01 T00040002  RH  099%=      5-min Rain = 0
KTH1 081420Z 34010G15KT 00/00 A303 RMK A01 T00040002  RH  099%=      5-min Rain = 0
KTH1 081421Z 34010KT 00/00 A303 RMK A01 T00040002  RH  099%=      5-min Rain = 0
KTH1 081422Z 34011KT 00/00 A303 RMK A01 T00040002  RH  099%=      5-min Rain = 0
KTH1 081423Z 35010KT 00/00 A303 RMK A01 T00040002  RH  099%=      5-min Rain = 0
KTH1 081424Z 35010KT 00/00 A303 RMK A01 T00040002  RH  099%=      5-min Rain = 0
KTH1 081425Z 35010G17KT 00/00 A303 RMK A01 T00040002  RH  099%=      5-min Rain = 0
KTH1 081426Z 36012KT 00/00 A303 RMK A01 T00040002  RH  099%=      5-min Rain = 0
KTH1 081427Z 35011KT 00/00 A303 RMK A01 T00030001  RH  099%=      5-min Rain = 0
KTH1 081428Z 35010KT 00/00 A303 RMK A01 T00030001  RH  099%=      5-min Rain = 0
KTH1 081429Z 34010KT 00/00 A303 RMK A01 T00040002  RH  099%=      5-min Rain = 0
KTH1 081430Z 35011G16KT 00/00 A303 RMK A01 T00040002  RH  099%=      5-min Rain = 0
KTH1 081431Z 35009KT 00/00 A303 RMK A01 T00040001  RH  099%=      5-min Rain = 0
KTH1 081432Z 35011KT 00/00 A303 RMK A01 T00040002  RH  099%=      5-min Rain = 0
KTH1 081433Z 34012KT 00/00 A303 RMK A01 T00040002  RH  098%=      5-min Rain = 0
KTH1 081434Z 34008G13KT 00/00 A303 RMK A01 T00040001  RH  098%=      5-min Rain = 0
KTH1 081435Z 34012KT 00/00 A303 RMK A01 T00040001  RH  098%=      5-min Rain = 0
KTH1 081436Z 34010KT 00/00 A303 RMK A01 T00040001  RH  098%=      5-min Rain = 0
KTH1 081437Z 35009KT 00/00 A303 RMK A01 T00040001  RH  098%=      5-min Rain = 0
KTH1 081438Z 34010KT 00/00 A303 RMK A01 T00040002  RH  098%=      5-min Rain = 0
KTH1 081439Z 34010KT 00/00 A303 RMK A01 T00040002  RH  098%=      5-min Rain = 0
KTH1 081440Z 35008KT 00/00 A303 RMK A01 T00040002  RH  098%=      5-min Rain = 0
KTH1 081441Z 35008KT 00/00 A303 RMK A01 T00040002  RH  098%=      5-min Rain = 0
KTH1 081442Z 35008KT 00/00 A303 RMK A01 T00040002  RH  098%=      5-min Rain = 0
KTH1 081443Z 35009KT 00/00 A303 RMK A01 T00040002  RH  098%=      5-min Rain = 0
KTH1 081444Z 34010KT 00/00 A303 RMK A01 T00040002  RH  098%=      5-min Rain = 0
KTH1 081445Z 34009KT 00/00 A303 RMK A01 T00040002  RH  098%=      5-min Rain = 0
KTH1 081446Z 34009KT 00/00 A303 RMK A01 T00030001  RH  098%=      5-min Rain = 0
KTH1 081447Z 34010KT 00/00 A303 RMK A01 T00040001  RH  098%=      5-min Rain = 0
KTH1 081448Z 34011KT 00/00 A303 RMK A01 T00030001  RH  098%=      5-min Rain = 0
KTH1 081449Z 35009KT 00/00 A3031 RMK A01 T00030000  RH  098%=      5-min Rain = 0
KTH1 081450Z 34008KT 00/00 A3031 RMK A01 T00030000  RH  098%=      5-min Rain = 0
KTH1 081451Z 34011KT 00/00 A3031 RMK A01 T00030000  RH  098%=      5-min Rain = 0
KTH1 081452Z 35009G14KT 00/00 A3031 RMK A01 T00030000  RH  098%=      5-min Rain = 0
KTH1 081453Z 35010G15KT 00/00 A3031 RMK A01 T000200-0  RH  098%=      5-min Rain = 0
KTH1 081454Z 35012KT 00/M00 A3031 RMK A01 T00021001  RH  098%=      5-min Rain = 0
KTH1 081455Z 34010KT 00/M00 A3031 RMK A01 T00021001  RH  098%=      5-min Rain = 0
KTH1 081456Z 35009KT 00/M00 A3031 RMK A01 T00021001  RH  098%=      5-min Rain = 0
KTH1 081457Z 35010G15KT 00/00 A3031 RMK A01 T000200-0  RH  098%=      5-min Rain = 0
KTH1 081458Z 34011KT 00/M00 A3031 RMK A01 T00021001  RH  098%=      5-min Rain = 0
KTH1 081459Z 34010KT 00/00 A3031 RMK A01 T000200-0  RH  098%=      5-min Rain = 0
KTH1 081500Z 35009KT 00/00 A3031 RMK A01 T000200-0  RH  099%=      5-min Rain = 0
KTH1 081501Z 34010KT 00/M00 A3031 RMK A01 T00021001  RH  099%=      5-min Rain = 0
KTH1 081502Z 34010KT 00/M00 A3031 RMK A01 T00011001  RH  099%=      5-min Rain = 0
KTH1 081503Z 34009KT 00/M00 A3031 RMK A01 T00011001  RH  099%=      5-min Rain = 0
KTH1 081504Z 34008KT 00/M00 A3031 RMK A01 T00011001  RH  099%=      5-min Rain = 0
KTH1 081505Z 34007KT 00/M00 A3031 RMK A01 T00011001  RH  099%=      5-min Rain = 0
KTH1 081506Z 35010KT 00/M00 A3031 RMK A01 T00011001  RH  099%=      5-min Rain = 0
KTH1 081507Z 34009KT 00/00 A3031 RMK A01 T000100-0  RH  099%=      5-min Rain = 0.01
KTH1 081508Z 35010KT 00/M00 A3031 RMK A01 T00011001  RH  099%=      5-min Rain = 0
KTH1 081509Z 35009KT 00/M00 A3031 RMK A01 T00011001  RH  099%=      5-min Rain = 0
KTH1 081510Z 35008KT 00/00 A3031 RMK A01 T000100-0  RH  099%=      5-min Rain = 0
KTH1 081511Z 34008KT 00/00 A3031 RMK A01 T000100-0  RH  099%=      5-min Rain = 0
KTH1 081512Z 34010KT 00/M00 A3031 RMK A01 T00011001  RH  099%=      5-min Rain = 0
KTH1 081513Z 34008KT 00/M00 A3031 RMK A01 T00011001  RH  099%=      5-min Rain = 0
KTH1 081514Z 33007KT 00/M00 A3031 RMK A01 T00011001  RH  099%=      5-min Rain = 0
KTH1 081515Z 33007KT 00/M00 A3031 RMK A01 T00011001  RH  099%=      5-min Rain = 0
KTH1 081516Z 33008KT 00/M00 A3031 RMK A01 T00011001  RH  099%=      5-min Rain = 0
KTH1 081517Z 33010KT 00/M00 A3031 RMK A01 T00011001  RH  099%=      5-min Rain = 0
KTH1 081518Z 34010KT 00/00 A3031 RMK A01 T000000-1  RH  099%=      5-min Rain = 0
KTH1 081519Z 33009G14KT 00/00 A3031 RMK A01 T000000-1  RH  099%=      5-min Rain = 0
KTH1 081520Z 34012KT 00/00 A3031 RMK A01 T000000-1  RH  099%=      5-min Rain = 0
KTH1 081521Z 35009KT 00/00 A3031 RMK A01 T000000-1  RH  099%=      5-min Rain = 0
KTH1 081522Z 34008KT 00/00 A3032 RMK A01 T00-000-2  RH  099%=      5-min Rain = 0
KTH1 081523Z 34007KT 00/00 A3032 RMK A01 T00-000-2  RH  099%=      5-min Rain = 0
KTH1 081524Z 34011KT 00/00 A3032 RMK A01 T000000-1  RH  099%=      5-min Rain = 0
KTH1 081525Z 34012KT 00/00 A3032 RMK A01 T00-000-1  RH  099%=      5-min Rain = 0
KTH1 081526Z 34008KT 00/00 A3032 RMK A01 T000000-1  RH  099%=      5-min Rain = 0
KTH1 081527Z 33007KT 00/00 A3032 RMK A01 T00-000-2  RH  099%=      5-min Rain = 0
KTH1 081528Z 35008KT 00/00 A3032 RMK A01 T00-000-2  RH  099%=      5-min Rain = 0
KTH1 081529Z 34007KT 00/00 A3032 RMK A01 T00-000-1  RH  099%=      5-min Rain = 0
KTH1 081530Z 33006KT 00/00 A3032 RMK A01 T00-000-1  RH  099%=      5-min Rain = 0
KTH1 081531Z 34007KT 00/00 A3032 RMK A01 T000000-1  RH  099%=      5-min Rain = 0
KTH1 081532Z 34008KT 00/00 A3032 RMK A01 T00-000-1  RH  099%=      5-min Rain = 0
KTH1 081533Z 33008KT 00/00 A3032 RMK A01 T00-000-1  RH  099%=      5-min Rain = 0
KTH1 081534Z 33008KT 00/00 A3032 RMK A01 T00-000-1  RH  099%=      5-min Rain = 0
KTH1 081535Z 34007KT 00/00 A3032 RMK A01 T00-000-1  RH  099%=      5-min Rain = 0
KTH1 081536Z 34007KT 00/00 A3032 RMK A01 T00-000-1  RH  099%=      5-min Rain = 0
KTH1 081537Z 34008KT 00/00 A3032 RMK A01 T00-000-1  RH  099%=      5-min Rain = 0
KTH1 081538Z 34011KT 00/00 A3032 RMK A01 T00-000-1  RH  099%=      5-min Rain = 0
KTH1 081539Z 33008KT 00/00 A3032 RMK A01 T00-000-2  RH  099%=      5-min Rain = 0
KTH1 081540Z 34010KT 00/00 A3032 RMK A01 T00-000-2  RH  099%=      5-min Rain = 0
KTH1 081541Z 33010KT M00/M00 A3032 RMK A01 T10011002  RH  099%=      5-min Rain = 0
KTH1 081542Z 34009KT 00/00 A3032 RMK A01 T00-000-1  RH  099%=      5-min Rain = 0
KTH1 081543Z 34009KT M00/M00 A3032 RMK A01 T10011002  RH  099%=      5-min Rain = 0
KTH1 081544Z 34008KT 00/00 A3032 RMK A01 T00-000-1  RH  099%=      5-min Rain = 0
KTH1 081545Z 34007KT 00/00 A3032 RMK A01 T00-000-2  RH  099%=      5-min Rain = 0
KTH1 081546Z 34008KT M00/M00 A3032 RMK A01 T10011002  RH  099%=      5-min Rain = 0
KTH1 081547Z 33008KT M00/M00 A3032 RMK A01 T10011002  RH  099%=      5-min Rain = 0
KTH1 081548Z 33008KT M00/M00 A3032 RMK A01 T10011002  RH  099%=      5-min Rain = 0
KTH1 081549Z 34009KT M00/M00 A3032 RMK A01 T10011002  RH  099%=      5-min Rain = 0
KTH1 081550Z 34011KT M00/M00 A3032 RMK A01 T10011002  RH  099%=      5-min Rain = 0
KTH1 081551Z 34008KT M00/M00 A3032 RMK A01 T10011002  RH  099%=      5-min Rain = 0
KTH1 081552Z 33008KT M00/M00 A3032 RMK A01 T10011002  RH  099%=      5-min Rain = 0
KTH1 081553Z 34008G14KT M00/M00 A3032 RMK A01 T10011002  RH  099%=      5-min Rain = 0
KTH1 081554Z 34011KT M00/M00 A3032 RMK A01 T10011002  RH  099%=      5-min Rain = 0
KTH1 081555Z 34009KT M00/M00 A3032 RMK A01 T10011002  RH  099%=      5-min Rain = 0
KTH1 081556Z 33009KT M00/M00 A3032 RMK A01 T10011002  RH  099%=      5-min Rain = 0
KTH1 081557Z 34008KT M00/M00 A3032 RMK A01 T10011002  RH  099%=      5-min Rain = 0
KTH1 081558Z 34007KT M00/M00 A3032 RMK A01 T10011002  RH  099%=      5-min Rain = 0
KTH1 081559Z 34007KT M00/M00 A3032 RMK A01 T10011002  RH  099%=      5-min Rain = 0
KTH1 081600Z 34008KT M00/M00 A3032 RMK A01 T10011002  RH  099%=      5-min Rain = 0
KTH1 081601Z 34008KT M00/M00 A3032 RMK A01 T10011002  RH  099%=      5-min Rain = 0
KTH1 081602Z 33008KT M00/M00 A3032 RMK A01 T10011002  RH  099%=      5-min Rain = 0
KTH1 081603Z 33009KT M00/M00 A3032 RMK A01 T10011001  RH  099%=      5-min Rain = 0
KTH1 081604Z 33008KT M00/M00 A3032 RMK A01 T10011002  RH  099%=      5-min Rain = 0
KTH1 081605Z 33009KT M00/M00 A3032 RMK A01 T10011002  RH  099%=      5-min Rain = 0
KTH1 081606Z 33009KT M00/M00 A3032 RMK A01 T10011001  RH  099%=      5-min Rain = 0
KTH1 081607Z 33009G14KT 00/00 A3032 RMK A01 T00-000-1  RH  099%=      5-min Rain = 0
KTH1 081608Z 33011KT M00/M00 A3032 RMK A01 T10011002  RH  099%=      5-min Rain = 0
KTH1 081609Z 32011KT M00/M00 A3032 RMK A01 T10011002  RH  099%=      5-min Rain = 0
KTH1 081610Z 33009KT M00/M00 A3032 RMK A01 T10011002  RH  099%=      5-min Rain = 0
KTH1 081611Z 33011KT M00/M00 A3032 RMK A01 T10011002  RH  099%=      5-min Rain = 0
KTH1 081612Z 34009KT M00/M00 A3032 RMK A01 T10011002  RH  099%=      5-min Rain = 0
KTH1 081613Z 33010KT M00/M00 A3032 RMK A01 T10011002  RH  099%=      5-min Rain = 0
KTH1 081614Z 33011KT M00/M00 A3032 RMK A01 T10011002  RH  099%=      5-min Rain = 0
KTH1 081615Z 33010KT M00/M00 A3032 RMK A01 T10011002  RH  099%=      5-min Rain = 0
KTH1 081616Z 33010KT M00/M00 A3032 RMK A01 T10021002  RH  099%=      5-min Rain = 0
KTH1 081617Z 34009KT M00/M00 A3032 RMK A01 T10021003  RH  099%=      5-min Rain = 0
KTH1 081618Z 33012KT M00/M00 A3032 RMK A01 T10011002  RH  099%=      5-min Rain = 0
KTH1 081619Z 33012KT M00/M00 A3032 RMK A01 T10011002  RH  099%=      5-min Rain = 0
KTH1 081620Z 33010KT M00/M00 A3032 RMK A01 T10021002  RH  099%=      5-min Rain = 0
KTH1 081621Z 33008KT M00/M00 A3032 RMK A01 T10011002  RH  099%=      5-min Rain = 0
KTH1 081622Z 33010KT M00/M00 A3032 RMK A01 T10011002  RH  099%=      5-min Rain = 0
KTH1 081623Z 33010KT M00/M00 A3032 RMK A01 T10021002  RH  099%=      5-min Rain = 0
KTH1 081624Z 33009KT M00/M00 A3032 RMK A01 T10021002  RH  099%=      5-min Rain = 0
KTH1 081625Z 33009KT M00/M00 A3032 RMK A01 T10021003  RH  099%=      5-min Rain = 0
KTH1 081626Z 33008KT M00/M00 A3032 RMK A01 T10021003  RH  099%=      5-min Rain = 0
KTH1 081627Z 33011KT M00/M00 A3032 RMK A01 T10021003  RH  099%=      5-min Rain = 0
KTH1 081628Z 33010KT M00/M00 A3032 RMK A01 T10021003  RH  100%=      5-min Rain = 0
KTH1 081629Z 33009KT M00/M00 A3032 RMK A01 T10021002  RH  100%=      5-min Rain = 0
KTH1 081630Z 33009KT M00/M00 A3032 RMK A01 T10021003  RH  100%=      5-min Rain = 0
KTH1 081631Z 33010KT M00/M00 A3032 RMK A01 T10021003  RH  100%=      5-min Rain = 0
KTH1 081632Z 33011KT M00/M00 A3032 RMK A01 T10021003  RH  099%=      5-min Rain = 0
KTH1 081633Z 33010KT M00/M00 A3032 RMK A01 T10021003  RH  100%=      5-min Rain = 0
KTH1 081634Z 33010KT M00/M00 A3032 RMK A01 T10021003  RH  100%=      5-min Rain = 0
KTH1 081635Z 33011KT M00/M00 A3032 RMK A01 T10021003  RH  100%=      5-min Rain = 0
KTH1 081636Z 33009KT M00/M00 A3032 RMK A01 T10021003  RH  100%=      5-min Rain = 0
KTH1 081637Z 33010KT M00/M00 A3032 RMK A01 T10021003  RH  100%=      5-min Rain = 0
KTH1 081638Z 33010KT M00/M00 A3032 RMK A01 T10021003  RH  100%=      5-min Rain = 0
KTH1 081639Z 33010KT M00/M00 A3032 RMK A01 T10021003  RH  100%=      5-min Rain = 0
KTH1 081640Z 34011KT M00/M00 A3032 RMK A01 T10031003  RH  100%=      5-min Rain = 0
KTH1 081641Z 33010G15KT M00/M00 A3032 RMK A01 T10031003  RH  100%=      5-min Rain = 0
KTH1 081642Z 34008KT M00/M00 A3032 RMK A01 T10031004  RH  100%=      5-min Rain = 0
KTH1 081643Z 33009KT M00/M00 A3032 RMK A01 T10031004  RH  100%=      5-min Rain = 0
KTH1 081644Z 33011KT M00/M00 A3032 RMK A01 T10031004  RH  100%=      5-min Rain = 0
KTH1 081645Z 33008KT M00/M00 A3032 RMK A01 T10031003  RH  100%=      5-min Rain = 0
KTH1 081646Z 33010KT M00/M00 A3032 RMK A01 T10031004  RH  100%=      5-min Rain = 0
KTH1 081647Z 33009KT M00/M00 A3032 RMK A01 T10031003  RH  100%=      5-min Rain = 0
KTH1 081648Z 33009KT M00/M00 A3032 RMK A01 T10031003  RH  100%=      5-min Rain = 0
KTH1 081649Z 34009G14KT M00/M00 A3032 RMK A01 T10031003  RH  100%=      5-min Rain = 0
KTH1 081650Z 33010KT M00/M00 A3032 RMK A01 T10031003  RH  100%=      5-min Rain = 0
KTH1 081651Z 34009KT M00/M00 A3032 RMK A01 T10031003  RH  100%=      5-min Rain = 0
KTH1 081652Z 33008KT M00/M00 A3032 RMK A01 T10031003  RH  100%=      5-min Rain = 0
KTH1 081653Z 33010KT M00/M00 A3032 RMK A01 T10031003  RH  100%=      5-min Rain = 0
KTH1 081654Z 33009KT M00/M00 A3032 RMK A01 T10031003  RH  100%=      5-min Rain = 0
KTH1 081655Z 33009KT M00/M00 A3032 RMK A01 T10031003  RH  100%=      5-min Rain = 0
KTH1 081656Z 33010KT M00/M00 A3032 RMK A01 T10031004  RH  100%=      5-min Rain = 0
KTH1 081657Z 33011KT M00/M00 A3032 RMK A01 T10031003  RH  100%=      5-min Rain = 0
KTH1 081658Z 33010KT M00/M00 A3032 RMK A01 T10031003  RH  100%=      5-min Rain = 0
KTH1 081659Z 33009KT M00/M00 A3032 RMK A01 T10031003  RH  100%=      5-min Rain = 0
KTH1 081700Z 33008KT M00/M00 A3032 RMK A01 T10031003  RH  100%=      5-min Rain = 0
KTH1 081701Z 33009KT M00/M00 A3032 RMK A01 T10031003  RH  100%=      5-min Rain = 0
KTH1 081702Z 33010KT M00/M00 A3032 RMK A01 T10031003  RH  100%=      5-min Rain = 0
KTH1 081703Z 32008KT M00/M00 A3032 RMK A01 T10031003  RH  100%=      5-min Rain = 0
KTH1 081704Z 33009KT M00/M00 A3032 RMK A01 T10031003  RH  100%=      5-min Rain = 0
KTH1 081705Z 34010KT M00/M00 A3032 RMK A01 T10021003  RH  100%=      5-min Rain = 0
KTH1 081706Z 34009KT M00/M00 A3032 RMK A01 T10021003  RH  100%=      5-min Rain = 0
KTH1 081707Z 33009KT M00/M00 A3032 RMK A01 T10021002  RH  100%=      5-min Rain = 0
KTH1 081708Z 34009KT M00/M00 A3032 RMK A01 T10021003  RH  100%=      5-min Rain = 0
KTH1 081709Z 34008KT M00/M00 A3032 RMK A01 T10021003  RH  100%=      5-min Rain = 0
KTH1 081710Z 33008KT M00/M00 A3032 RMK A01 T10021003  RH  100%=      5-min Rain = 0
KTH1 081711Z 33009KT M00/M00 A3032 RMK A01 T10021003  RH  100%=      5-min Rain = 0
KTH1 081712Z 33011KT M00/M00 A3032 RMK A01 T10021003  RH  100%=      5-min Rain = 0
KTH1 081713Z 33010KT M00/M00 A3032 RMK A01 T10031003  RH  100%=      5-min Rain = 0
KTH1 081714Z 34009KT M00/M00 A3032 RMK A01 T10031003  RH  100%=      5-min Rain = 0
KTH1 081715Z 33009KT M00/M00 A3032 RMK A01 T10021003  RH  100%=      5-min Rain = 0
KTH1 081716Z 33010KT M00/M00 A3032 RMK A01 T10021003  RH  100%=      5-min Rain = 0
KTH1 081717Z 33009KT M00/M00 A3032 RMK A01 T10021003  RH  100%=      5-min Rain = 0
KTH1 081718Z 33009KT M00/M00 A3032 RMK A01 T10021003  RH  100%=      5-min Rain = 0
KTH1 081719Z 33009KT M00/M00 A3032 RMK A01 T10021003  RH  100%=      5-min Rain = 0
KTH1 081720Z 33010KT M00/M00 A3032 RMK A01 T10021002  RH  100%=      5-min Rain = 0
KTH1 081721Z 33008KT M00/M00 A3032 RMK A01 T10021002  RH  100%=      5-min Rain = 0
KTH1 081722Z 33009KT M00/M00 A3032 RMK A01 T10021002  RH  100%=      5-min Rain = 0
KTH1 081723Z 33010KT M00/M00 A3032 RMK A01 T10021002  RH  100%=      5-min Rain = 0
KTH1 081724Z 33009KT M00/M00 A3032 RMK A01 T10021002  RH  100%=      5-min Rain = 0
KTH1 081725Z 33009KT M00/M00 A3032 RMK A01 T10021002  RH  100%=      5-min Rain = 0
KTH1 081726Z 32010KT M00/M00 A3032 RMK A01 T10021002  RH  100%=      5-min Rain = 0
KTH1 081727Z 33009KT M00/M00 A3032 RMK A01 T10021002  RH  100%=      5-min Rain = 0
KTH1 081728Z 32010KT M00/M00 A3032 RMK A01 T10021002  RH  100%=      5-min Rain = 0
KTH1 081729Z 33010KT M00/M00 A3032 RMK A01 T10021002  RH  100%=      5-min Rain = 0
KTH1 081730Z 33009KT M00/M00 A3032 RMK A01 T10021002  RH  100%=      5-min Rain = 0
KTH1 081731Z 33011KT M00/M00 A3032 RMK A01 T10021002  RH  100%=      5-min Rain = 0
KTH1 081732Z 33010G15KT M00/M00 A3032 RMK A01 T10021002  RH  100%=      5-min Rain = 0
KTH1 081733Z 33011KT M00/M00 A3032 RMK A01 T10021002  RH  100%=      5-min Rain = 0
KTH1 081734Z 33010KT M00/M00 A3032 RMK A01 T10021002  RH  100%=      5-min Rain = 0
KTH1 081735Z 33009G14KT M00/M00 A3032 RMK A01 T10021002  RH  100%=      5-min Rain = 0
KTH1 081736Z 34011KT M00/M00 A3032 RMK A01 T10011002  RH  100%=      5-min Rain = 0
KTH1 081737Z 33008G13KT M00/M00 A3032 RMK A01 T10011002  RH  100%=      5-min Rain = 0
KTH1 081738Z 33011KT M00/M00 A3032 RMK A01 T10011002  RH  100%=      5-min Rain = 0
KTH1 081739Z 33010KT M00/M00 A3032 RMK A01 T10021002  RH  100%=      5-min Rain = 0
KTH1 081740Z 33009KT M00/M00 A3032 RMK A01 T10011002  RH  100%=      5-min Rain = 0
KTH1 081741Z 33008KT M00/M00 A3032 RMK A01 T10011002  RH  100%=      5-min Rain = 0
KTH1 081742Z 33009KT M00/M00 A3032 RMK A01 T10021002  RH  100%=      5-min Rain = 0
KTH1 081743Z 33011KT M00/M00 A3032 RMK A01 T10021002  RH  100%=      5-min Rain = 0
KTH1 081744Z 33011KT M00/M00 A3032 RMK A01 T10011002  RH  100%=      5-min Rain = 0
KTH1 081745Z 33012KT M00/M00 A3032 RMK A01 T10011002  RH  100%=      5-min Rain = 0
KTH1 081746Z 33012KT M00/M00 A3032 RMK A01 T10011002  RH  100%=      5-min Rain = 0
KTH1 081747Z 32010KT M00/M00 A3032 RMK A01 T10011002  RH  100%=      5-min Rain = 0
KTH1 081748Z 32011KT M00/M00 A3031 RMK A01 T10021002  RH  100%=      5-min Rain = 0
KTH1 081749Z 33012KT M00/M00 A3031 RMK A01 T10021002  RH  100%=      5-min Rain = 0
KTH1 081750Z 33009KT M00/M00 A3031 RMK A01 T10021002  RH  100%=      5-min Rain = 0
KTH1 081751Z 33010KT M00/M00 A3031 RMK A01 T10021002  RH  100%=      5-min Rain = 0
KTH1 081752Z 33011KT M00/M00 A3031 RMK A01 T10011002  RH  100%=      5-min Rain = 0
KTH1 081753Z 32009KT M00/M00 A3031 RMK A01 T10021002  RH  100%=      5-min Rain = 0
KTH1 081754Z 33011KT M00/M00 A3031 RMK A01 T10011002  RH  100%=      5-min Rain = 0
KTH1 081755Z 33011KT M00/M00 A3031 RMK A01 T10021002  RH  100%=      5-min Rain = 0
KTH1 081756Z 33009KT M00/M00 A3031 RMK A01 T10011002  RH  100%=      5-min Rain = 0
KTH1 081757Z 33010KT M00/M00 A3031 RMK A01 T10011002  RH  100%=      5-min Rain = 0
KTH1 081758Z 33011KT M00/M00 A3031 RMK A01 T10011002  RH  100%=      5-min Rain = 0
KTH1 081759Z 33011KT M00/M00 A3031 RMK A01 T10021002  RH  100%=      5-min Rain = 0
KTH1 081800Z 33010KT M00/M00 A3031 RMK A01 T10021002  RH  100%=      5-min Rain = 0
KTH1 081801Z 33011G16KT M00/M00 A3031 RMK A01 T10021002  RH  100%=      5-min Rain = 0
KTH1 081802Z 33011G16KT M00/M00 A3031 RMK A01 T10021002  RH  100%=      5-min Rain = 0
KTH1 081803Z 34009G15KT M00/M00 A3031 RMK A01 T10011002  RH  100%=      5-min Rain = 0
KTH1 081804Z 34010G15KT M00/M00 A3031 RMK A01 T10011002  RH  100%=      5-min Rain = 0
KTH1 081805Z 33009KT M00/M00 A3031 RMK A01 T10011002  RH  100%=      5-min Rain = 0
KTH1 081806Z 34008KT M00/M00 A3031 RMK A01 T10011002  RH  100%=      5-min Rain = 0
KTH1 081807Z 34010KT M00/M00 A3031 RMK A01 T10011001  RH  100%=      5-min Rain = 0
KTH1 081808Z 33010G15KT M00/M00 A3031 RMK A01 T10011002  RH  100%=      5-min Rain = 0
KTH1 081809Z 33008KT M00/M00 A3031 RMK A01 T10011002  RH  100%=      5-min Rain = 0
KTH1 081810Z 33007KT M00/M00 A3031 RMK A01 T10011001  RH  100%=      5-min Rain = 0
KTH1 081811Z 33010KT M00/M00 A3031 RMK A01 T10011001  RH  100%=      5-min Rain = 0
KTH1 081812Z 33009KT M00/M00 A3031 RMK A01 T10011001  RH  100%=      5-min Rain = 0
KTH1 081813Z 33011KT M00/M00 A3031 RMK A01 T10011001  RH  100%=      5-min Rain = 0
KTH1 081814Z 33008KT M00/M00 A3031 RMK A01 T10011001  RH  100%=      5-min Rain = 0
KTH1 081815Z 33010KT M00/M00 A303 RMK A01 T10011001  RH  100%=      5-min Rain = 0
KTH1 081816Z 33011KT M00/M00 A303 RMK A01 T10011001  RH  100%=      5-min Rain = 0
KTH1 081817Z 34010KT M00/M00 A303 RMK A01 T10011001  RH  100%=      5-min Rain = 0
KTH1 081818Z 33009KT M00/M00 A303 RMK A01 T10011001  RH  100%=      5-min Rain = 0
KTH1 081819Z 33010KT M00/M00 A303 RMK A01 T10011001  RH  100%=      5-min Rain = 0
KTH1 081820Z 33013KT M00/M00 A303 RMK A01 T10011001  RH  100%=      5-min Rain = 0
KTH1 081821Z 34008KT M00/M00 A303 RMK A01 T10011001  RH  100%=      5-min Rain = 0
KTH1 081822Z 33008KT M00/M00 A303 RMK A01 T10011001  RH  100%=      5-min Rain = 0
KTH1 081823Z 33009KT M00/M00 A303 RMK A01 T10011001  RH  100%=      5-min Rain = 0
KTH1 081824Z 33010KT M00/M00 A303 RMK A01 T10011001  RH  100%=      5-min Rain = 0
KTH1 081825Z 34010KT M00/M00 A303 RMK A01 T10011001  RH  100%=      5-min Rain = 0
KTH1 081826Z 34010KT M00/M00 A303 RMK A01 T10011001  RH  100%=      5-min Rain = 0
KTH1 081827Z 33009KT M00/M00 A303 RMK A01 T10011001  RH  100%=      5-min Rain = 0
KTH1 081828Z 33010KT M00/M00 A303 RMK A01 T10011001  RH  100%=      5-min Rain = 0
KTH1 081829Z 33010KT M00/M00 A303 RMK A01 T10011001  RH  100%=      5-min Rain = 0
KTH1 081830Z 34010KT M00/M00 A303 RMK A01 T10011001  RH  100%=      5-min Rain = 0
KTH1 081831Z 33009KT M00/M00 A303 RMK A01 T10011001  RH  100%=      5-min Rain = 0
KTH1 081832Z 34010KT M00/M00 A303 RMK A01 T10011001  RH  100%=      5-min Rain = 0
KTH1 081833Z 33009KT M00/M00 A303 RMK A01 T10011001  RH  100%=      5-min Rain = 0
KTH1 081834Z 34009KT 00/00 A303 RMK A01 T00-000-1  RH  100%=      5-min Rain = 0
KTH1 081835Z 34010KT M00/M00 A303 RMK A01 T10011001  RH  100%=      5-min Rain = 0
KTH1 081836Z 33008KT M00/M00 A3029 RMK A01 T10011001  RH  100%=      5-min Rain = 0
KTH1 081837Z 33009KT M00/M00 A3029 RMK A01 T10011001  RH  100%=      5-min Rain = 0
KTH1 081838Z 33010KT 00/00 A3029 RMK A01 T00-000-1  RH  100%=      5-min Rain = 0
KTH1 081839Z 33008KT 00/00 A3029 RMK A01 T00-000-1  RH  100%=      5-min Rain = 0
KTH1 081840Z 33007KT 00/00 A3029 RMK A01 T00-000-0  RH  100%=      5-min Rain = 0
KTH1 081841Z 33008KT 00/00 A3029 RMK A01 T000000-0  RH  100%=      5-min Rain = 0
KTH1 081842Z 33009KT 00/00 A3029 RMK A01 T000000-0  RH  100%=      5-min Rain = 0
KTH1 081843Z 33010KT 00/00 A3029 RMK A01 T00-000-0  RH  100%=      5-min Rain = 0
KTH1 081844Z 33009KT 00/00 A3029 RMK A01 T00-000-0  RH  100%=      5-min Rain = 0
KTH1 081845Z 33009KT 00/00 A3029 RMK A01 T00-000-0  RH  100%=      5-min Rain = 0
KTH1 081846Z 33010KT 00/00 A3029 RMK A01 T00-000-0  RH  100%=      5-min Rain = 0
KTH1 081847Z 33007KT 00/00 A3029 RMK A01 T00000000  RH  100%=      5-min Rain = 0
KTH1 081848Z 32009KT 00/00 A3029 RMK A01 T000000-0  RH  100%=      5-min Rain = 0
KTH1 081849Z 32008KT 00/00 A3029 RMK A01 T00000000  RH  100%=      5-min Rain = 0
KTH1 081850Z 33011G17KT 00/00 A3029 RMK A01 T00010000  RH  100%=      5-min Rain = 0
KTH1 081851Z 33014KT 00/00 A3029 RMK A01 T00000000  RH  100%=      5-min Rain = 0
KTH1 081852Z 33012KT 00/00 A3029 RMK A01 T00010000  RH  100%=      5-min Rain = 0
KTH1 081853Z 33010KT 00/00 A3029 RMK A01 T00000000  RH  100%=      5-min Rain = 0
KTH1 081854Z 34013KT 00/00 A3029 RMK A01 T00000000  RH  100%=      5-min Rain = 0
KTH1 081855Z 33010KT 00/00 A3029 RMK A01 T000000-0  RH  100%=      5-min Rain = 0
KTH1 081856Z 33011KT 00/00 A3028 RMK A01 T00010001  RH  100%=      5-min Rain = 0
KTH1 081857Z 33009KT 00/00 A3028 RMK A01 T00010001  RH  100%=      5-min Rain = 0
KTH1 081858Z 33007KT 00/00 A3028 RMK A01 T00020001  RH  100%=      5-min Rain = 0
KTH1 081859Z 33008KT 00/00 A3028 RMK A01 T00020002  RH  100%=      5-min Rain = 0
KTH1 081900Z 33013KT 00/00 A3028 RMK A01 T00030002  RH  100%=      5-min Rain = 0
KTH1 081901Z 33011KT 00/00 A3028 RMK A01 T00030002  RH  100%=      5-min Rain = 0
KTH1 081902Z 33009KT 00/00 A3028 RMK A01 T00030003  RH  100%=      5-min Rain = 0
KTH1 081903Z 33009KT 00/00 A3028 RMK A01 T00030003  RH  100%=      5-min Rain = 0
KTH1 081904Z 33009KT 00/00 A3028 RMK A01 T00040003  RH  100%=      5-min Rain = 0
KTH1 081905Z 33010KT 00/00 A3028 RMK A01 T00040003  RH  100%=      5-min Rain = 0
KTH1 081906Z 33008KT 01/00 A3028 RMK A01 T00050004  RH  100%=      5-min Rain = 0
KTH1 081907Z 32008KT 01/00 A3028 RMK A01 T00050004  RH  100%=      5-min Rain = 0
KTH1 081908Z 34009KT 01/01 A3028 RMK A01 T00050005  RH  100%=      5-min Rain = 0
KTH1 081909Z 33013KT 01/01 A3028 RMK A01 T00050005  RH  100%=      5-min Rain = 0
KTH1 081910Z 33010KT 01/01 A3028 RMK A01 T00050005  RH  100%=      5-min Rain = 0
KTH1 081911Z 34010G15KT 01/00 A3028 RMK A01 T00050004  RH  099%=      5-min Rain = 0
KTH1 081912Z 33010KT 01/00 A3028 RMK A01 T00050004  RH  099%=      5-min Rain = 0
KTH1 081913Z 33011KT 01/00 A3028 RMK A01 T00050004  RH  100%=      5-min Rain = 0
KTH1 081914Z 34011KT 01/00 A3028 RMK A01 T00050004  RH  099%=      5-min Rain = 0
KTH1 081915Z 33011KT 01/00 A3028 RMK A01 T00050004  RH  099%=      5-min Rain = 0
KTH1 081916Z 33009KT 01/00 A3028 RMK A01 T00050004  RH  099%=      5-min Rain = 0
KTH1 081917Z 34013G18KT 01/00 A3028 RMK A01 T00050004  RH  099%=      5-min Rain = 0
KTH1 081918Z 33012G17KT 01/00 A3028 RMK A01 T00050004  RH  099%=      5-min Rain = 0
KTH1 081919Z 34014KT 01/00 A3028 RMK A01 T00050004  RH  099%=      5-min Rain = 0
KTH1 081920Z 34011G16KT 00/00 A3028 RMK A01 T00040003  RH  099%=      5-min Rain = 0
KTH1 081921Z 33011KT 00/00 A3028 RMK A01 T00040003  RH  099%=      5-min Rain = 0
KTH1 081922Z 33010KT 01/00 A3028 RMK A01 T00050003  RH  099%=      5-min Rain = 0
KTH1 081923Z 34010KT 01/00 A3028 RMK A01 T00050004  RH  099%=      5-min Rain = 0.01
KTH1 081924Z 33011G16KT 01/01 A3028 RMK A01 T00060005  RH  099%=      5-min Rain = 0
KTH1 081925Z 33010KT 01/01 A3028 RMK A01 T00060005  RH  099%=      5-min Rain = 0
KTH1 081926Z 33010KT 01/01 A3028 RMK A01 T00060005  RH  099%=      5-min Rain = 0
KTH1 081927Z 33010KT 01/01 A3028 RMK A01 T00070005  RH  099%=      5-min Rain = 0.01
KTH1 081928Z 33012KT 01/01 A3028 RMK A01 T00060005  RH  099%=      5-min Rain = 0
KTH1 081929Z 33012KT 01/01 A3028 RMK A01 T00060005  RH  099%=      5-min Rain = 0.01
KTH1 081930Z 33010KT 01/01 A3028 RMK A01 T00060005  RH  099%=      5-min Rain = 0
KTH1 081931Z 32010KT 01/01 A3028 RMK A01 T00060005  RH  099%=      5-min Rain = 0.01
KTH1 081932Z 33009KT 01/01 A3028 RMK A01 T00060005  RH  099%=      5-min Rain = 0
KTH1 081933Z 32009KT 01/01 A3028 RMK A01 T00060005  RH  099%=      5-min Rain = 0
KTH1 081934Z 32010G15KT 01/01 A3028 RMK A01 T00060005  RH  099%=      5-min Rain = 0.01
KTH1 081935Z 33012KT 01/01 A3028 RMK A01 T00060005  RH  099%=      5-min Rain = 0
KTH1 081936Z 33012G17KT 01/01 A3028 RMK A01 T00060005  RH  099%=      5-min Rain = 0.01
KTH1 081937Z 33013KT 01/00 A3028 RMK A01 T00050004  RH  099%=      5-min Rain = 0
KTH1 081938Z 33014KT 01/00 A3028 RMK A01 T00050003  RH  099%=      5-min Rain = 0.01
KTH1 081939Z 33014KT 01/00 A3028 RMK A01 T00050003  RH  099%=      5-min Rain = 0
KTH1 081940Z 33012KT 01/00 A3028 RMK A01 T00050003  RH  099%=      5-min Rain = 0
KTH1 081941Z 33010KT 00/00 A3028 RMK A01 T00040002  RH  099%=      5-min Rain = 0
KTH1 081942Z 33012KT 00/00 A3028 RMK A01 T00040003  RH  099%=      5-min Rain = 0
KTH1 081943Z 33013KT 00/00 A3028 RMK A01 T00040002  RH  099%=      5-min Rain = 0
KTH1 081944Z 33015KT 00/00 A3027 RMK A01 T00040002  RH  099%=      5-min Rain = 0
KTH1 081945Z 34012G17KT 00/00 A3027 RMK A01 T00030001  RH  099%=      5-min Rain = 0
KTH1 081946Z 34013KT 00/00 A3028 RMK A01 T00030001  RH  099%=      5-min Rain = 0
KTH1 081947Z 34011KT 00/00 A3027 RMK A01 T00030001  RH  099%=      5-min Rain = 0
KTH1 081948Z 33009KT 00/00 A3027 RMK A01 T00030001  RH  099%=      5-min Rain = 0
KTH1 081949Z 34009KT 00/00 A3027 RMK A01 T00040001  RH  099%=      5-min Rain = 0
KTH1 081950Z 33010KT 00/00 A3027 RMK A01 T00040002  RH  099%=      5-min Rain = 0
KTH1 081951Z 33008KT 00/00 A3027 RMK A01 T00040002  RH  099%=      5-min Rain = 0
KTH1 081952Z 33009KT 01/00 A3027 RMK A01 T00050003  RH  099%=      5-min Rain = 0.01
KTH1 081953Z 33009KT 01/00 A3027 RMK A01 T00050003  RH  099%=      5-min Rain = 0
KTH1 081954Z 33010KT 01/00 A3027 RMK A01 T00060003  RH  099%=      5-min Rain = 0
KTH1 081955Z 33009KT 01/00 A3027 RMK A01 T00060003  RH  099%=      5-min Rain = 0.01
KTH1 081956Z 33009KT 01/00 A3027 RMK A01 T00060003  RH  099%=      5-min Rain = 0
KTH1 081957Z 33009KT 01/00 A3027 RMK A01 T00050003  RH  098%=      5-min Rain = 0
KTH1 081958Z 33012G17KT 01/00 A3027 RMK A01 T00060003  RH  099%=      5-min Rain = 0
KTH1 081959Z 34012KT 01/00 A3027 RMK A01 T00050003  RH  098%=      5-min Rain = 0
KTH1 082000Z 33013KT 01/00 A3027 RMK A01 T00050003  RH  098%=      5-min Rain = 0
KTH1 082001Z 33013KT 01/00 A3027 RMK A01 T00050003  RH  098%=      5-min Rain = 0
KTH1 082002Z 33013KT 01/00 A3027 RMK A01 T00050002  RH  098%=      5-min Rain = 0
KTH1 082003Z 33012KT 00/00 A3027 RMK A01 T00040002  RH  098%=      5-min Rain = 0.01
KTH1 082004Z 34011G16KT 00/00 A3027 RMK A01 T00040002  RH  098%=      5-min Rain = 0
KTH1 082005Z 32010KT 00/00 A3027 RMK A01 T00040002  RH  098%=      5-min Rain = 0
KTH1 082006Z 33010G15KT 00/00 A3027 RMK A01 T00040002  RH  098%=      5-min Rain = 0
KTH1 082007Z 34014KT 01/00 A3027 RMK A01 T00050002  RH  098%=      5-min Rain = 0
KTH1 082008Z 34014KT 00/00 A3027 RMK A01 T00040002  RH  098%=      5-min Rain = 0.01
KTH1 082009Z 33011KT 00/00 A3027 RMK A01 T00040001  RH  098%=      5-min Rain = 0
KTH1 082010Z 34008KT 00/00 A3027 RMK A01 T00040001  RH  098%=      5-min Rain = 0
KTH1 082011Z 33010KT 00/00 A3027 RMK A01 T00040001  RH  098%=      5-min Rain = 0
KTH1 082012Z 33010KT 00/00 A3027 RMK A01 T00040002  RH  098%=      5-min Rain = 0.01
KTH1 082013Z 32011G16KT 00/00 A3027 RMK A01 T00040001  RH  098%=      5-min Rain = 0
KTH1 082014Z 33013KT 00/00 A3027 RMK A01 T00040002  RH  098%=      5-min Rain = 0
KTH1 082015Z 32010KT 00/00 A3027 RMK A01 T00040001  RH  098%=      5-min Rain = 0
KTH1 082016Z 32012KT 00/00 A3027 RMK A01 T00040001  RH  098%=      5-min Rain = 0
KTH1 082017Z 32014KT 00/00 A3027 RMK A01 T00040002  RH  098%=      5-min Rain = 0.01
KTH1 082018Z 32012KT 00/00 A3027 RMK A01 T00040002  RH  098%=      5-min Rain = 0
KTH1 082019Z 32010KT 00/00 A3027 RMK A01 T00040001  RH  098%=      5-min Rain = 0
KTH1 082020Z 33013KT 00/00 A3027 RMK A01 T00040001  RH  098%=      5-min Rain = 0
KTH1 082021Z 33014KT 00/00 A3027 RMK A01 T00040001  RH  098%=      5-min Rain = 0
KTH1 082022Z 33010KT 00/00 A3027 RMK A01 T000300-0  RH  098%=      5-min Rain = 0.01
KTH1 082023Z 33013KT 00/00 A3027 RMK A01 T00030000  RH  098%=      5-min Rain = 0
KTH1 082024Z 33012G17KT 00/00 A3027 RMK A01 T000300-0  RH  098%=      5-min Rain = 0
KTH1 082025Z 33011KT 00/M00 A3027 RMK A01 T00021001  RH  098%=      5-min Rain = 0
KTH1 082026Z 33011KT 00/M00 A3027 RMK A01 T00021001  RH  098%=      5-min Rain = 0
KTH1 082027Z 33013KT 00/M00 A3027 RMK A01 T00021001  RH  098%=      5-min Rain = 0
KTH1 082028Z 34012KT 00/M00 A3027 RMK A01 T00021001  RH  098%=      5-min Rain = 0.01
KTH1 082029Z 33012KT 00/M00 A3027 RMK A01 T00021001  RH  098%=      5-min Rain = 0
KTH1 082030Z 33011G16KT 00/M00 A3027 RMK A01 T00021001  RH  098%=      5-min Rain = 0
KTH1 082031Z 33011KT 00/M00 A3027 RMK A01 T00021001  RH  098%=      5-min Rain = 0
KTH1 082032Z 32009KT 00/M00 A3027 RMK A01 T00021001  RH  098%=      5-min Rain = 0
KTH1 082033Z 33012KT 00/00 A3027 RMK A01 T000300-0  RH  098%=      5-min Rain = 0
KTH1 082034Z 33009KT 00/00 A3027 RMK A01 T00030000  RH  098%=      5-min Rain = 0
KTH1 082035Z 32011KT 00/00 A3027 RMK A01 T000300-0  RH  098%=      5-min Rain = 0
KTH1 082036Z 33010KT 00/00 A3027 RMK A01 T000300-0  RH  098%=      5-min Rain = 0
KTH1 082037Z 32013KT 00/00 A3027 RMK A01 T000300-0  RH  098%=      5-min Rain = 0.01
KTH1 082038Z 32011KT 00/00 A3027 RMK A01 T000300-0  RH  098%=      5-min Rain = 0
KTH1 082039Z 32010KT 00/00 A3027 RMK A01 T000300-0  RH  098%=      5-min Rain = 0
KTH1 082040Z 33010KT 00/00 A3027 RMK A01 T000300-0  RH  098%=      5-min Rain = 0
KTH1 082041Z 32012KT 00/00 A3027 RMK A01 T00040001  RH  098%=      5-min Rain = 0
KTH1 082042Z 33012KT 00/00 A3027 RMK A01 T00040000  RH  098%=      5-min Rain = 0
KTH1 082043Z 33011KT 00/00 A3027 RMK A01 T000300-0  RH  098%=      5-min Rain = 0
KTH1 082044Z 32010KT 00/00 A3027 RMK A01 T000300-0  RH  098%=      5-min Rain = 0
KTH1 082045Z 32012KT 00/00 A3027 RMK A01 T00030000  RH  098%=      5-min Rain = 0
KTH1 082046Z 32011KT 00/00 A3027 RMK A01 T00040000  RH  097%=      5-min Rain = 0
KTH1 082047Z 33011KT 00/00 A3027 RMK A01 T00040000  RH  097%=      5-min Rain = 0
KTH1 082048Z 33010KT 00/M00 A3027 RMK A01 T00031001  RH  097%=      5-min Rain = 0.01
KTH1 082049Z 34009KT 00/M00 A3028 RMK A01 T00031001  RH  097%=      5-min Rain = 0
KTH1 082050Z 34011KT 00/M00 A3027 RMK A01 T00031001  RH  097%=      5-min Rain = 0
KTH1 082051Z 34011G17KT 00/M00 A3027 RMK A01 T00031002  RH  097%=      5-min Rain = 0
KTH1 082052Z 33010KT 00/M00 A3028 RMK A01 T00031002  RH  097%=      5-min Rain = 0
KTH1 082053Z 33011KT 00/M00 A3027 RMK A01 T00031002  RH  097%=      5-min Rain = 0
KTH1 082054Z 33013KT 00/M00 A3027 RMK A01 T00031002  RH  097%=      5-min Rain = 0
KTH1 082055Z 33014KT 00/M00 A3027 RMK A01 T00031002  RH  097%=      5-min Rain = 0
KTH1 082056Z 34012KT 00/M00 A3027 RMK A01 T00031002  RH  096%=      5-min Rain = 0
KTH1 082057Z 33012KT 00/M00 A3027 RMK A01 T00031003  RH  096%=      5-min Rain = 0
KTH1 082058Z 33011KT 00/M00 A3027 RMK A01 T00031002  RH  096%=      5-min Rain = 0
KTH1 082059Z 33009KT 00/M00 A3027 RMK A01 T00031003  RH  096%=      5-min Rain = 0
KTH1 082100Z 33009KT 00/M00 A3027 RMK A01 T00031003  RH  096%=      5-min Rain = 0.01
KTH1 082101Z 32008KT 00/M00 A3027 RMK A01 T00041002  RH  096%=      5-min Rain = 0
KTH1 082102Z 32008KT 00/M00 A3028 RMK A01 T00041001  RH  096%=      5-min Rain = 0
KTH1 082103Z 32008KT 01/M00 A3028 RMK A01 T00051001  RH  096%=      5-min Rain = 0
KTH1 082104Z 33009KT 01/M00 A3028 RMK A01 T00051001  RH  096%=      5-min Rain = 0
KTH1 082105Z 33011KT 00/M00 A3028 RMK A01 T00041001  RH  096%=      5-min Rain = 0
KTH1 082106Z 33012KT 00/M00 A3028 RMK A01 T00041001  RH  096%=      5-min Rain = 0
KTH1 082107Z 33013KT 00/M00 A3028 RMK A01 T00041001  RH  096%=      5-min Rain = 0
KTH1 082108Z 33012KT 00/M00 A3028 RMK A01 T00041002  RH  096%=      5-min Rain = 0
KTH1 082109Z 32013KT 00/M00 A3027 RMK A01 T00041002  RH  096%=      5-min Rain = 0
KTH1 082110Z 33011KT 01/M00 A3028 RMK A01 T00051002  RH  096%=      5-min Rain = 0
KTH1 082111Z 33011KT 00/M00 A3028 RMK A01 T00041002  RH  095%=      5-min Rain = 0
KTH1 082112Z 34009KT 00/M00 A3027 RMK A01 T00041002  RH  095%=      5-min Rain = 0
KTH1 082113Z 33010KT 01/M00 A3027 RMK A01 T00051002  RH  095%=      5-min Rain = 0
KTH1 082114Z 33010KT 01/M00 A3027 RMK A01 T00051002  RH  095%=      5-min Rain = 0.01
KTH1 082115Z 32010KT 01/M00 A3027 RMK A01 T00051002  RH  095%=      5-min Rain = 0
KTH1 082116Z 34009KT 01/M00 A3027 RMK A01 T00051002  RH  095%=      5-min Rain = 0
KTH1 082117Z 33009KT 00/M00 A3027 RMK A01 T00041003  RH  095%=      5-min Rain = 0
KTH1 082118Z 33011KT 00/M00 A3027 RMK A01 T00041002  RH  095%=      5-min Rain = 0
KTH1 082119Z 33009KT 00/M00 A3027 RMK A01 T00041002  RH  095%=      5-min Rain = 0
KTH1 082120Z 33008KT 01/M00 A3027 RMK A01 T00051002  RH  095%=      5-min Rain = 0
KTH1 082121Z 33008KT 01/M00 A3027 RMK A01 T00051001  RH  096%=      5-min Rain = 0
KTH1 082122Z 34007KT 01/M00 A3027 RMK A01 T00051001  RH  096%=      5-min Rain = 0
KTH1 082123Z 33007KT 01/M00 A3027 RMK A01 T00051001  RH  096%=      5-min Rain = 0
KTH1 082124Z 33011KT 01/M00 A3027 RMK A01 T00051001  RH  096%=      5-min Rain = 0
KTH1 082125Z 33011KT 01/M00 A3027 RMK A01 T00051001  RH  096%=      5-min Rain = 0
KTH1 082126Z 34010KT 01/M00 A3027 RMK A01 T00051001  RH  095%=      5-min Rain = 0
KTH1 082127Z 34008KT 01/M00 A3028 RMK A01 T00051002  RH  095%=      5-min Rain = 0
KTH1 082128Z 33014KT 01/M00 A3028 RMK A01 T00051002  RH  095%=      5-min Rain = 0
KTH1 082129Z 33010KT 01/M00 A3028 RMK A01 T00051002  RH  095%=      5-min Rain = 0
KTH1 082130Z 33011KT 01/M00 A3028 RMK A01 T00051003  RH  095%=      5-min Rain = 0
KTH1 082131Z 34009KT 01/M00 A3028 RMK A01 T00051003  RH  095%=      5-min Rain = 0
KTH1 082132Z 33011KT 01/M00 A3028 RMK A01 T00051003  RH  095%=      5-min Rain = 0
KTH1 082133Z 34008KT 01/M00 A3028 RMK A01 T00051003  RH  094%=      5-min Rain = 0
KTH1 082134Z 33008KT 01/M00 A3028 RMK A01 T00051003  RH  094%=      5-min Rain = 0
KTH1 082135Z 33008KT 01/M00 A3028 RMK A01 T00061002  RH  095%=      5-min Rain = 0.01
KTH1 082136Z 33009KT 01/M00 A3028 RMK A01 T00051002  RH  095%=      5-min Rain = 0
KTH1 082137Z 33010KT 01/M00 A3028 RMK A01 T00051003  RH  094%=      5-min Rain = 0
KTH1 082138Z 33010KT 01/M00 A3028 RMK A01 T00061002  RH  094%=      5-min Rain = 0
KTH1 082139Z 33010KT 01/M00 A3028 RMK A01 T00061003  RH  094%=      5-min Rain = 0
KTH1 082140Z 33008KT 01/M00 A3028 RMK A01 T00061003  RH  094%=      5-min Rain = 0
KTH1 082141Z 34007KT 01/M00 A3027 RMK A01 T00051004  RH  094%=      5-min Rain = 0
KTH1 082142Z 34009KT 01/M00 A3027 RMK A01 T00061003  RH  094%=      5-min Rain = 0
KTH1 082143Z 35012KT 01/M00 A3027 RMK A01 T00061003  RH  094%=      5-min Rain = 0
KTH1 082144Z 34010KT 01/M00 A3027 RMK A01 T00061004  RH  093%=      5-min Rain = 0
KTH1 082145Z 34007KT 01/M00 A3027 RMK A01 T00061004  RH  093%=      5-min Rain = 0
KTH1 082146Z 34011KT 01/M00 A3027 RMK A01 T00061004  RH  093%=      5-min Rain = 0
KTH1 082147Z 33011KT 01/M00 A3027 RMK A01 T00061004  RH  093%=      5-min Rain = 0
KTH1 082148Z 34010KT 01/M00 A3027 RMK A01 T00061004  RH  093%=      5-min Rain = 0
KTH1 082149Z 33009KT 01/M01 A3027 RMK A01 T00061005  RH  093%=      5-min Rain = 0
KTH1 082150Z 34009KT 01/M01 A3027 RMK A01 T00061005  RH  093%=      5-min Rain = 0
KTH1 082151Z 34009G14KT 01/M00 A3027 RMK A01 T00061004  RH  093%=      5-min Rain = 0
KTH1 082152Z 33009KT 01/M00 A3027 RMK A01 T00061004  RH  093%=      5-min Rain = 0
KTH1 082153Z 34009KT 01/M01 A3027 RMK A01 T00061005  RH  092%=      5-min Rain = 0.01
KTH1 082154Z 33010KT 01/M01 A3027 RMK A01 T00061005  RH  092%=      5-min Rain = 0
KTH1 082155Z 34007KT 01/M01 A3027 RMK A01 T00061005  RH  092%=      5-min Rain = 0
KTH1 082156Z 33007KT 01/M00 A3028 RMK A01 T00071004  RH  093%=      5-min Rain = 0
KTH1 082157Z 33007KT 01/M00 A3028 RMK A01 T00071003  RH  093%=      5-min Rain = 0
KTH1 082158Z 33007KT 01/M00 A3028 RMK A01 T00071003  RH  093%=      5-min Rain = 0
KTH1 082159Z 33008KT 01/M00 A3028 RMK A01 T00071003  RH  093%=      5-min Rain = 0
KTH1 082200Z 33008KT 01/M00 A3028 RMK A01 T00071002  RH  093%=      5-min Rain = 0
KTH1 082201Z 33009KT 01/M00 A3028 RMK A01 T00071003  RH  093%=      5-min Rain = 0
KTH1 082202Z 33008KT 01/M00 A3028 RMK A01 T00071003  RH  093%=      5-min Rain = 0
KTH1 082203Z 34010KT 01/M00 A3028 RMK A01 T00071003  RH  093%=      5-min Rain = 0
KTH1 082204Z 33009KT 01/M00 A3028 RMK A01 T00071003  RH  093%=      5-min Rain = 0
KTH1 082205Z 32009KT 01/M00 A3027 RMK A01 T00071003  RH  093%=      5-min Rain = 0
KTH1 082206Z 33011KT 01/M00 A3027 RMK A01 T00071004  RH  092%=      5-min Rain = 0
KTH1 082207Z 34010KT 01/M01 A3027 RMK A01 T00071005  RH  092%=      5-min Rain = 0
KTH1 082208Z 33010KT 01/M01 A3027 RMK A01 T00071005  RH  092%=      5-min Rain = 0
KTH1 082209Z 34008KT 01/M00 A3027 RMK A01 T00071004  RH  092%=      5-min Rain = 0
KTH1 082210Z 33009G14KT 01/M00 A3027 RMK A01 T00071004  RH  092%=      5-min Rain = 0
KTH1 082211Z 33009KT 01/M01 A3027 RMK A01 T00071005  RH  092%=      5-min Rain = 0
KTH1 082212Z 33008KT 01/M00 A3027 RMK A01 T00071003  RH  093%=      5-min Rain = 0
KTH1 082213Z 33007KT 01/M00 A3027 RMK A01 T00081003  RH  093%=      5-min Rain = 0
KTH1 082214Z 33005KT 01/M00 A3028 RMK A01 T00081002  RH  093%=      5-min Rain = 0
KTH1 082215Z 32006KT 01/M00 A3027 RMK A01 T00081002  RH  093%=      5-min Rain = 0
KTH1 082216Z 33007KT 01/M00 A3027 RMK A01 T00081002  RH  093%=      5-min Rain = 0
KTH1 082217Z 33007KT 01/M00 A3027 RMK A01 T00081002  RH  093%=      5-min Rain = 0
KTH1 082218Z 33006KT 01/M00 A3027 RMK A01 T00081002  RH  093%=      5-min Rain = 0
KTH1 082219Z 33008KT 01/M00 A3027 RMK A01 T00081002  RH  093%=      5-min Rain = 0
KTH1 082220Z 32007KT 01/M00 A3027 RMK A01 T00081003  RH  093%=      5-min Rain = 0
KTH1 082221Z 32008KT 01/M00 A3027 RMK A01 T00081003  RH  093%=      5-min Rain = 0
KTH1 082222Z 33006KT 01/M00 A3027 RMK A01 T00081002  RH  093%=      5-min Rain = 0
KTH1 082223Z 34006KT 01/M00 A3027 RMK A01 T00081002  RH  093%=      5-min Rain = 0
KTH1 082224Z 33006KT 01/M00 A3027 RMK A01 T00091001  RH  093%=      5-min Rain = 0
KTH1 082225Z 33008KT 01/M00 A3027 RMK A01 T00091001  RH  093%=      5-min Rain = 0
KTH1 082226Z 33009KT 01/M00 A3027 RMK A01 T00081002  RH  093%=      5-min Rain = 0
KTH1 082227Z 33007KT 01/M00 A3027 RMK A01 T00081003  RH  093%=      5-min Rain = 0
KTH1 082228Z 32008KT 01/M00 A3027 RMK A01 T00081002  RH  093%=      5-min Rain = 0
KTH1 082229Z 33007KT 01/M00 A3027 RMK A01 T00081002  RH  093%=      5-min Rain = 0
KTH1 082230Z 32007KT 01/M00 A3027 RMK A01 T00081002  RH  093%=      5-min Rain = 0
KTH1 082231Z 33007KT 01/M00 A3028 RMK A01 T00081002  RH  093%=      5-min Rain = 0
KTH1 082232Z 33007KT 01/M00 A3028 RMK A01 T00091001  RH  093%=      5-min Rain = 0
KTH1 082233Z 33007KT 01/M00 A3028 RMK A01 T00091001  RH  093%=      5-min Rain = 0
KTH1 082234Z 33008KT 01/M00 A3028 RMK A01 T00091002  RH  093%=      5-min Rain = 0
KTH1 082235Z 33008KT 01/M00 A3028 RMK A01 T00081003  RH  093%=      5-min Rain = 0
KTH1 082236Z 33007KT 01/M00 A3028 RMK A01 T00081003  RH  093%=      5-min Rain = 0
KTH1 082237Z 33007KT 01/M00 A3028 RMK A01 T00081002  RH  093%=      5-min Rain = 0
KTH1 082238Z 33006KT 01/M00 A3028 RMK A01 T00081002  RH  093%=      5-min Rain = 0
KTH1 082239Z 33006KT 01/M00 A3028 RMK A01 T00081002  RH  093%=      5-min Rain = 0
KTH1 082240Z 34006KT 01/M00 A3028 RMK A01 T00081002  RH  093%=      5-min Rain = 0
KTH1 082241Z 34006KT 01/M00 A3028 RMK A01 T00081002  RH  093%=      5-min Rain = 0
KTH1 082242Z 33008KT 01/M00 A3028 RMK A01 T00081002  RH  093%=      5-min Rain = 0
KTH1 082243Z 33006KT 01/M00 A3028 RMK A01 T00081002  RH  093%=      5-min Rain = 0
KTH1 082244Z 34005KT 01/M00 A3028 RMK A01 T00081002  RH  093%=      5-min Rain = 0
KTH1 082245Z 33005KT 01/M00 A3028 RMK A01 T00081002  RH  093%=      5-min Rain = 0
KTH1 082246Z 34006KT 01/M00 A3028 RMK A01 T00081001  RH  093%=      5-min Rain = 0
KTH1 082247Z 34006KT 01/M00 A3028 RMK A01 T00091001  RH  093%=      5-min Rain = 0
KTH1 082248Z 34007KT 01/M00 A3028 RMK A01 T00081001  RH  093%=      5-min Rain = 0
KTH1 082249Z 33006KT 01/M00 A3028 RMK A01 T00081002  RH  093%=      5-min Rain = 0
KTH1 082250Z 33007KT 01/M00 A3028 RMK A01 T00081002  RH  093%=      5-min Rain = 0
KTH1 082251Z 35006KT 01/M00 A3028 RMK A01 T00081002  RH  093%=      5-min Rain = 0
KTH1 082252Z 35006KT 01/M00 A3028 RMK A01 T00081002  RH  093%=      5-min Rain = 0
KTH1 082253Z 34006KT 01/M00 A3028 RMK A01 T00081002  RH  093%=      5-min Rain = 0
KTH1 082254Z 34006KT 01/M00 A3028 RMK A01 T00081001  RH  093%=      5-min Rain = 0
KTH1 082255Z 34006KT 01/M00 A3028 RMK A01 T00081002  RH  093%=      5-min Rain = 0
KTH1 082256Z 34004KT 01/M00 A3028 RMK A01 T00081002  RH  093%=      5-min Rain = 0
KTH1 082257Z 34004KT 01/M00 A3028 RMK A01 T00091001  RH  094%=      5-min Rain = 0
KTH1 082258Z 34005KT 01/00 A3028 RMK A01 T000900-0  RH  094%=      5-min Rain = 0
KTH1 082259Z 35004KT 01/00 A3028 RMK A01 T00090000  RH  094%=      5-min Rain = 0
KTH1 082300Z 34005KT 01/00 A3028 RMK A01 T00090000  RH  094%=      5-min Rain = 0
KTH1 082301Z 34007KT 01/00 A3028 RMK A01 T00090000  RH  094%=      5-min Rain = 0
KTH1 082302Z 33006KT 01/M00 A3028 RMK A01 T00081001  RH  093%=      5-min Rain = 0
KTH1 082303Z 34006KT 01/M00 A3028 RMK A01 T00081001  RH  093%=      5-min Rain = 0
KTH1 082304Z 34005KT 01/M00 A3028 RMK A01 T00081001  RH  093%=      5-min Rain = 0
KTH1 082305Z 34005KT 01/M00 A3028 RMK A01 T00081001  RH  094%=      5-min Rain = 0
KTH1 082306Z 34007KT 01/M00 A3028 RMK A01 T00081001  RH  094%=      5-min Rain = 0
KTH1 082307Z 34005KT 01/M00 A3028 RMK A01 T00081001  RH  093%=      5-min Rain = 0
KTH1 082308Z 34005KT 01/M00 A3028 RMK A01 T00081001  RH  094%=      5-min Rain = 0
KTH1 082309Z 34004KT 01/M00 A3028 RMK A01 T00081001  RH  094%=      5-min Rain = 0
KTH1 082310Z 33005KT 01/00 A3028 RMK A01 T000900-0  RH  094%=      5-min Rain = 0
KTH1 082311Z 34006KT 01/00 A3028 RMK A01 T00090000  RH  094%=      5-min Rain = 0
KTH1 082312Z 34006KT 01/00 A3028 RMK A01 T00090000  RH  094%=      5-min Rain = 0
KTH1 082313Z 33006KT 01/00 A3028 RMK A01 T00090000  RH  094%=      5-min Rain = 0
KTH1 082314Z 34005KT 01/00 A3028 RMK A01 T000800-0  RH  094%=      5-min Rain = 0
KTH1 082315Z 34005KT 01/00 A3028 RMK A01 T000900-0  RH  094%=      5-min Rain = 0
KTH1 082316Z 34007KT 01/00 A3028 RMK A01 T000900-0  RH  094%=      5-min Rain = 0
KTH1 082317Z 33004KT 01/00 A3028 RMK A01 T000900-0  RH  094%=      5-min Rain = 0
KTH1 082318Z 34005KT 01/00 A3028 RMK A01 T000800-0  RH  094%=      5-min Rain = 0
KTH1 082319Z 34005KT 01/00 A3028 RMK A01 T00090000  RH  094%=      5-min Rain = 0
KTH1 082320Z 34005KT 01/00 A3028 RMK A01 T00090000  RH  094%=      5-min Rain = 0
KTH1 082321Z 34005KT 01/00 A3028 RMK A01 T000800-0  RH  094%=      5-min Rain = 0
KTH1 082322Z 33006KT 01/00 A3028 RMK A01 T00090000  RH  094%=      5-min Rain = 0
KTH1 082323Z 33005KT 01/00 A3028 RMK A01 T000800-0  RH  094%=      5-min Rain = 0
KTH1 082324Z 33004KT 01/00 A3028 RMK A01 T000900-0  RH  094%=      5-min Rain = 0
KTH1 082325Z 34006KT 01/00 A3028 RMK A01 T000900-0  RH  094%=      5-min Rain = 0
KTH1 082326Z 33005KT 01/00 A3028 RMK A01 T000900-0  RH  094%=      5-min Rain = 0
KTH1 082327Z 33005KT 01/M00 A3028 RMK A01 T00091001  RH  094%=      5-min Rain = 0
KTH1 082328Z 34005KT 01/M00 A3028 RMK A01 T00081001  RH  094%=      5-min Rain = 0
KTH1 082329Z 34005KT 01/M00 A3028 RMK A01 T00091001  RH  093%=      5-min Rain = 0
KTH1 082330Z 34004KT 01/M00 A3028 RMK A01 T00081002  RH  093%=      5-min Rain = 0
KTH1 082331Z 33003KT 01/M00 A3028 RMK A01 T00081002  RH  093%=      5-min Rain = 0
KTH1 082332Z 34004KT 01/M00 A3028 RMK A01 T00081001  RH  093%=      5-min Rain = 0
KTH1 082333Z 34003KT 01/M00 A3028 RMK A01 T00081001  RH  094%=      5-min Rain = 0
KTH1 082334Z 34004KT 01/M00 A3028 RMK A01 T00081001  RH  094%=      5-min Rain = 0
KTH1 082335Z 34004KT 01/M00 A3028 RMK A01 T00081001  RH  094%=      5-min Rain = 0
KTH1 082336Z 34004KT 01/M00 A3028 RMK A01 T00081001  RH  094%=      5-min Rain = 0
KTH1 082337Z 34003KT 01/M00 A3028 RMK A01 T00081001  RH  094%=      5-min Rain = 0
KTH1 082338Z 35005KT 01/M00 A3028 RMK A01 T00081001  RH  094%=      5-min Rain = 0
KTH1 082339Z 34004KT 01/M00 A3028 RMK A01 T00081001  RH  094%=      5-min Rain = 0
KTH1 082340Z 34005KT 01/M00 A3028 RMK A01 T00081001  RH  094%=      5-min Rain = 0
KTH1 082341Z 34004KT 01/M00 A3028 RMK A01 T00081001  RH  094%=      5-min Rain = 0
KTH1 082342Z 34003KT 01/00 A3028 RMK A01 T000800-0  RH  094%=      5-min Rain = 0
KTH1 082343Z 34004KT 01/M00 A3028 RMK A01 T00081001  RH  094%=      5-min Rain = 0
KTH1 082344Z 34004KT 01/M00 A3028 RMK A01 T00081001  RH  094%=      5-min Rain = 0
KTH1 082345Z 35003KT 01/M00 A3028 RMK A01 T00081001  RH  094%=      5-min Rain = 0
KTH1 082346Z 35003KT 01/M00 A3028 RMK A01 T00081001  RH  094%=      5-min Rain = 0
KTH1 082347Z 34004KT 01/M00 A3028 RMK A01 T00081001  RH  094%=      5-min Rain = 0
KTH1 082348Z 35003KT 01/M00 A3028 RMK A01 T00081001  RH  094%=      5-min Rain = 0
KTH1 082349Z 34003KT 01/M00 A3028 RMK A01 T00081001  RH  094%=      5-min Rain = 0
KTH1 082350Z 35002KT 01/M00 A3028 RMK A01 T00071001  RH  094%=      5-min Rain = 0.01
KTH1 082351Z 34002KT 01/M00 A3028 RMK A01 T00071001  RH  094%=      5-min Rain = 0
KTH1 082352Z 34003KT 01/M00 A3028 RMK A01 T00071001  RH  094%=      5-min Rain = 0
KTH1 082353Z 34002KT 01/00 A3028 RMK A01 T000700-0  RH  095%=      5-min Rain = 0
KTH1 082354Z 34004KT 01/00 A3028 RMK A01 T000700-0  RH  095%=      5-min Rain = 0
KTH1 082355Z 34004KT 01/00 A3028 RMK A01 T000700-0  RH  095%=      5-min Rain = 0
KTH1 082356Z 34003KT 01/00 A3028 RMK A01 T000700-0  RH  095%=      5-min Rain = 0
KTH1 082357Z 34003KT 01/00 A3028 RMK A01 T000700-0  RH  095%=      5-min Rain = 0
KTH1 082358Z 35003KT 01/00 A3028 RMK A01 T00070000  RH  095%=      5-min Rain = 0
KTH1 082359Z 34003KT 01/00 A3028 RMK A01 T00070000  RH  095%=      5-min Rain = 0
KTH1 090000Z 34004KT 01/00 A3028 RMK A01 T00070000  RH  095%=      5-min Rain = 0
KTH1 090001Z 34004KT 01/00 A3028 RMK A01 T000700-0  RH  095%=      5-min Rain = 0
KTH1 090002Z 34004KT 01/00 A3028 RMK A01 T00070000  RH  095%=      5-min Rain = 0
KTH1 090003Z 34003KT 01/00 A3028 RMK A01 T000700-0  RH  095%=      5-min Rain = 0
KTH1 090004Z 33003KT 01/00 A3028 RMK A01 T000700-0  RH  095%=      5-min Rain = 0
KTH1 090005Z 33003KT 01/00 A3028 RMK A01 T00070000  RH  095%=      5-min Rain = 0
KTH1 090006Z 32004KT 01/00 A3028 RMK A01 T00080001  RH  095%=      5-min Rain = 0
KTH1 090007Z 32003KT 01/00 A3029 RMK A01 T00080001  RH  095%=      5-min Rain = 0
KTH1 090008Z 32004KT 01/00 A3029 RMK A01 T00080001  RH  095%=      5-min Rain = 0
KTH1 090009Z 32005KT 01/00 A3029 RMK A01 T00080001  RH  095%=      5-min Rain = 0
KTH1 090010Z 32004KT 01/00 A3029 RMK A01 T00080001  RH  095%=      5-min Rain = 0
KTH1 090011Z 32005KT 01/00 A3029 RMK A01 T00080001  RH  095%=      5-min Rain = 0
KTH1 090012Z 32005KT 01/00 A3029 RMK A01 T00090001  RH  095%=      5-min Rain = 0
KTH1 090013Z 32005KT 01/00 A3029 RMK A01 T00090001  RH  095%=      5-min Rain = 0
KTH1 090014Z 32005KT 01/00 A3029 RMK A01 T00080001  RH  095%=      5-min Rain = 0
KTH1 090015Z 32005KT 01/00 A3029 RMK A01 T00090001  RH  095%=      5-min Rain = 0
KTH1 090016Z 32004KT 01/00 A3029 RMK A01 T00090001  RH  095%=      5-min Rain = 0
KTH1 090017Z 32004KT 01/00 A3029 RMK A01 T00090001  RH  095%=      5-min Rain = 0
KTH1 090018Z 32004KT 01/00 A3029 RMK A01 T00090001  RH  095%=      5-min Rain = 0
KTH1 090019Z 32004KT 01/00 A3029 RMK A01 T00090001  RH  094%=      5-min Rain = 0
KTH1 090020Z 32005KT 01/00 A3029 RMK A01 T00090001  RH  094%=      5-min Rain = 0
KTH1 090021Z 32005KT 01/00 A3029 RMK A01 T00090001  RH  094%=      5-min Rain = 0
KTH1 090022Z 31005KT 01/00 A3029 RMK A01 T00090001  RH  094%=      5-min Rain = 0
KTH1 090023Z 32005KT 01/00 A3029 RMK A01 T00090001  RH  094%=      5-min Rain = 0
KTH1 090024Z 31005KT 01/00 A3029 RMK A01 T00090001  RH  094%=      5-min Rain = 0
KTH1 090025Z 32004KT 01/00 A3029 RMK A01 T00090001  RH  094%=      5-min Rain = 0
KTH1 090026Z 31005KT 01/00 A3029 RMK A01 T00100001  RH  094%=      5-min Rain = 0
KTH1 090027Z 32005KT 01/00 A3029 RMK A01 T00100002  RH  094%=      5-min Rain = 0
KTH1 090028Z 31004KT 01/00 A3029 RMK A01 T00100002  RH  094%=      5-min Rain = 0
KTH1 090029Z 32004KT 01/00 A3029 RMK A01 T00100002  RH  094%=      5-min Rain = 0
KTH1 090030Z 31005KT 01/00 A3029 RMK A01 T00110003  RH  094%=      5-min Rain = 0
KTH1 090031Z 32004KT 01/00 A3029 RMK A01 T00110003  RH  094%=      5-min Rain = 0
KTH1 090032Z 32005KT 01/00 A3029 RMK A01 T00110002  RH  094%=      5-min Rain = 0
KTH1 090033Z 32004KT 01/00 A3029 RMK A01 T00100001  RH  094%=      5-min Rain = 0
KTH1 090034Z 32004KT 01/00 A3029 RMK A01 T00100001  RH  094%=      5-min Rain = 0
KTH1 090035Z 32004KT 01/00 A3029 RMK A01 T00100001  RH  094%=      5-min Rain = 0
KTH1 090036Z 32004KT 01/00 A3029 RMK A01 T00100001  RH  094%=      5-min Rain = 0
KTH1 090037Z 32004KT 01/00 A3029 RMK A01 T00100001  RH  094%=      5-min Rain = 0
KTH1 090038Z 32005KT 01/00 A3029 RMK A01 T00100001  RH  094%=      5-min Rain = 0
KTH1 090039Z 32004KT 01/00 A3029 RMK A01 T00100001  RH  094%=      5-min Rain = 0
KTH1 090040Z 32004KT 01/00 A3029 RMK A01 T00100001  RH  094%=      5-min Rain = 0
KTH1 090041Z 32003KT 01/00 A3029 RMK A01 T00100001  RH  094%=      5-min Rain = 0
KTH1 090042Z 32004KT 01/00 A3029 RMK A01 T00100001  RH  094%=      5-min Rain = 0
KTH1 090043Z 31004KT 01/00 A3029 RMK A01 T00110002  RH  094%=      5-min Rain = 0
KTH1 090044Z 31004KT 01/00 A3029 RMK A01 T00110002  RH  094%=      5-min Rain = 0
KTH1 090045Z 31004KT 01/00 A3029 RMK A01 T00110002  RH  094%=      5-min Rain = 0
KTH1 090046Z 32004KT 01/00 A3029 RMK A01 T00110002  RH  094%=      5-min Rain = 0
KTH1 090047Z 31003KT 01/00 A3029 RMK A01 T00120003  RH  094%=      5-min Rain = 0
KTH1 090048Z 31004KT 01/00 A3029 RMK A01 T00120003  RH  094%=      5-min Rain = 0
KTH1 090049Z 32004KT 01/00 A3029 RMK A01 T00120004  RH  094%=      5-min Rain = 0
KTH1 090050Z 31005KT 01/00 A3029 RMK A01 T00130004  RH  094%=      5-min Rain = 0
KTH1 090051Z 31005KT 01/00 A3029 RMK A01 T00130003  RH  094%=      5-min Rain = 0
KTH1 090052Z 31004KT 01/00 A3029 RMK A01 T00120002  RH  093%=      5-min Rain = 0
KTH1 090053Z 32005KT 01/00 A3029 RMK A01 T00120002  RH  093%=      5-min Rain = 0
KTH1 090054Z 31004KT 01/00 A303 RMK A01 T00120002  RH  093%=      5-min Rain = 0
KTH1 090055Z 31005KT 01/00 A303 RMK A01 T00120002  RH  093%=      5-min Rain = 0
KTH1 090056Z 31004KT 01/00 A303 RMK A01 T00120001  RH  093%=      5-min Rain = 0
KTH1 090057Z 31005KT 01/00 A303 RMK A01 T00120002  RH  093%=      5-min Rain = 0
KTH1 090058Z 31005KT 01/00 A303 RMK A01 T00120002  RH  093%=      5-min Rain = 0
KTH1 090059Z 31005KT 01/00 A303 RMK A01 T00130002  RH  093%=      5-min Rain = 0
KTH1 090100Z 31005KT 01/00 A303 RMK A01 T00130002  RH  093%=      5-min Rain = 0
KTH1 090101Z 30004KT 01/00 A303 RMK A01 T00130002  RH  093%=      5-min Rain = 0
KTH1 090102Z 31004KT 01/00 A303 RMK A01 T00130003  RH  093%=      5-min Rain = 0
KTH1 090103Z 31005KT 01/00 A303 RMK A01 T00130003  RH  093%=      5-min Rain = 0
KTH1 090104Z 30004KT 01/00 A303 RMK A01 T00130002  RH  092%=      5-min Rain = 0
KTH1 090105Z 30005KT 01/00 A303 RMK A01 T00130002  RH  092%=      5-min Rain = 0
KTH1 090106Z 31005KT 01/00 A303 RMK A01 T00130001  RH  092%=      5-min Rain = 0
KTH1 090107Z 30005KT 01/00 A303 RMK A01 T00130001  RH  092%=      5-min Rain = 0
KTH1 090108Z 31005KT 01/00 A303 RMK A01 T00130001  RH  092%=      5-min Rain = 0
KTH1 090109Z 31005KT 01/00 A303 RMK A01 T00130000  RH  092%=      5-min Rain = 0
KTH1 090110Z 31005KT 01/00 A303 RMK A01 T00130001  RH  092%=      5-min Rain = 0
KTH1 090111Z 30005KT 01/00 A303 RMK A01 T00130001  RH  092%=      5-min Rain = 0
KTH1 090112Z 31005KT 01/00 A303 RMK A01 T00130002  RH  092%=      5-min Rain = 0
KTH1 090113Z 31005KT 01/00 A303 RMK A01 T00130002  RH  092%=      5-min Rain = 0
KTH1 090114Z 31005KT 01/00 A303 RMK A01 T00140003  RH  093%=      5-min Rain = 0
KTH1 090115Z 31006KT 01/00 A303 RMK A01 T00140002  RH  092%=      5-min Rain = 0
KTH1 090116Z 31005KT 01/00 A303 RMK A01 T00130001  RH  092%=      5-min Rain = 0
KTH1 090117Z 31005KT 01/00 A303 RMK A01 T00130001  RH  092%=      5-min Rain = 0
KTH1 090118Z 31005KT 01/00 A303 RMK A01 T00130002  RH  092%=      5-min Rain = 0
KTH1 090119Z 32005KT 01/00 A303 RMK A01 T00130001  RH  092%=      5-min Rain = 0
KTH1 090120Z 31004KT 01/00 A303 RMK A01 T00130001  RH  092%=      5-min Rain = 0
KTH1 090121Z 32004KT 01/00 A303 RMK A01 T00130002  RH  092%=      5-min Rain = 0
KTH1 090122Z 32005KT 01/00 A303 RMK A01 T00130001  RH  092%=      5-min Rain = 0
KTH1 090123Z 31005KT 01/00 A303 RMK A01 T00120001  RH  092%=      5-min Rain = 0
KTH1 090124Z 31004KT 01/00 A303 RMK A01 T001200-0  RH  092%=      5-min Rain = 0
KTH1 090125Z 32004KT 01/M00 A303 RMK A01 T00121001  RH  092%=      5-min Rain = 0
KTH1 090126Z 32004KT 01/M00 A303 RMK A01 T00111001  RH  092%=      5-min Rain = 0
KTH1 090127Z 32004KT 01/00 A303 RMK A01 T001100-0  RH  092%=      5-min Rain = 0
KTH1 090128Z 32005KT 01/00 A303 RMK A01 T001100-0  RH  092%=      5-min Rain = 0
KTH1 090129Z 32004KT 01/M00 A303 RMK A01 T00111001  RH  092%=      5-min Rain = 0
KTH1 090130Z 32004KT 01/M00 A303 RMK A01 T00111001  RH  092%=      5-min Rain = 0
KTH1 090131Z 32005KT 01/M00 A303 RMK A01 T00111001  RH  092%=      5-min Rain = 0
KTH1 090132Z 32005KT 01/M00 A303 RMK A01 T00111001  RH  092%=      5-min Rain = 0
KTH1 090133Z 31005KT 01/M00 A303 RMK A01 T00111001  RH  092%=      5-min Rain = 0
KTH1 090134Z 31005KT 01/M00 A303 RMK A01 T00111001  RH  092%=      5-min Rain = 0
KTH1 090135Z 31005KT 01/00 A303 RMK A01 T001100-0  RH  092%=      5-min Rain = 0
KTH1 090136Z 31004KT 01/M00 A303 RMK A01 T00111001  RH  092%=      5-min Rain = 0
KTH1 090137Z 31004KT 01/00 A303 RMK A01 T00120000  RH  092%=      5-min Rain = 0
KTH1 090138Z 31005KT 01/00 A303 RMK A01 T00120001  RH  092%=      5-min Rain = 0
KTH1 090139Z 31006KT 01/00 A303 RMK A01 T00130002  RH  092%=      5-min Rain = 0
KTH1 090140Z 31005KT 01/00 A303 RMK A01 T00130001  RH  092%=      5-min Rain = 0
KTH1 090141Z 31006KT 01/00 A303 RMK A01 T00130001  RH  092%=      5-min Rain = 0
KTH1 090142Z 31005KT 01/00 A303 RMK A01 T00130000  RH  092%=      5-min Rain = 0
KTH1 090143Z 31005KT 01/00 A303 RMK A01 T00130001  RH  092%=      5-min Rain = 0
KTH1 090144Z 31006KT 01/00 A303 RMK A01 T00130002  RH  092%=      5-min Rain = 0
KTH1 090145Z 31005KT 01/00 A303 RMK A01 T00130002  RH  092%=      5-min Rain = 0
KTH1 090146Z 30005KT 01/00 A303 RMK A01 T00130002  RH  092%=      5-min Rain = 0
KTH1 090147Z 31004KT 01/00 A303 RMK A01 T00130002  RH  092%=      5-min Rain = 0
KTH1 090148Z 30004KT 01/00 A303 RMK A01 T00130002  RH  092%=      5-min Rain = 0
KTH1 090149Z 30005KT 01/00 A303 RMK A01 T00140003  RH  093%=      5-min Rain = 0
KTH1 090150Z 31005KT 01/00 A303 RMK A01 T00140003  RH  092%=      5-min Rain = 0
KTH1 090151Z 30005KT 01/00 A303 RMK A01 T00130002  RH  092%=      5-min Rain = 0
KTH1 090152Z 30005KT 01/00 A303 RMK A01 T00130003  RH  093%=      5-min Rain = 0
KTH1 090153Z 31004KT 01/00 A303 RMK A01 T00130003  RH  093%=      5-min Rain = 0
KTH1 090154Z 30005KT 01/00 A303 RMK A01 T00130002  RH  093%=      5-min Rain = 0
KTH1 090155Z 31005KT 01/00 A303 RMK A01 T00130002  RH  092%=      5-min Rain = 0
KTH1 090156Z 30005KT 01/00 A303 RMK A01 T00130002  RH  092%=      5-min Rain = 0
KTH1 090157Z 30004KT 01/00 A303 RMK A01 T00130001  RH  092%=      5-min Rain = 0
KTH1 090158Z 30005KT 01/00 A303 RMK A01 T00130001  RH  092%=      5-min Rain = 0
KTH1 090159Z 30005KT 01/00 A303 RMK A01 T00130001  RH  092%=      5-min Rain = 0
KTH1 090200Z 30005KT 01/00 A3031 RMK A01 T00130002  RH  092%=      5-min Rain = 0
KTH1 090201Z 30005KT 01/00 A3031 RMK A01 T00130002  RH  093%=      5-min Rain = 0
KTH1 090202Z 29004KT 01/00 A3031 RMK A01 T00130002  RH  093%=      5-min Rain = 0
KTH1 090203Z 29004KT 01/00 A3031 RMK A01 T00130003  RH  093%=      5-min Rain = 0
KTH1 090204Z 30005KT 01/00 A3031 RMK A01 T00130003  RH  093%=      5-min Rain = 0
KTH1 090205Z 30004KT 01/00 A3031 RMK A01 T00130003  RH  093%=      5-min Rain = 0
KTH1 090206Z 31005KT 01/00 A3031 RMK A01 T00130002  RH  093%=      5-min Rain = 0
KTH1 090207Z 31005KT 01/00 A3031 RMK A01 T00130002  RH  093%=      5-min Rain = 0
KTH1 090208Z 31005KT 01/00 A3031 RMK A01 T00130002  RH  093%=      5-min Rain = 0
KTH1 090209Z 30004KT 01/00 A3031 RMK A01 T00130002  RH  093%=      5-min Rain = 0
KTH1 090210Z 30005KT 01/00 A3031 RMK A01 T00130003  RH  093%=      5-min Rain = 0
KTH1 090211Z 31005KT 01/00 A3031 RMK A01 T00130004  RH  094%=      5-min Rain = 0
KTH1 090212Z 30005KT 01/01 A3031 RMK A01 T00140005  RH  094%=      5-min Rain = 0
KTH1 090213Z 31005KT 01/00 A3031 RMK A01 T00140004  RH  094%=      5-min Rain = 0
KTH1 090214Z 30005KT 01/01 A3031 RMK A01 T00140005  RH  094%=      5-min Rain = 0
KTH1 090215Z 30005KT 01/01 A3031 RMK A01 T00140005  RH  094%=      5-min Rain = 0
KTH1 090216Z 31005KT 01/01 A3031 RMK A01 T00140005  RH  094%=      5-min Rain = 0
KTH1 090217Z 30005KT 01/01 A3031 RMK A01 T00140005  RH  094%=      5-min Rain = 0
KTH1 090218Z 30005KT 01/01 A3031 RMK A01 T00140005  RH  094%=      5-min Rain = 0
KTH1 090219Z 31005KT 01/01 A3031 RMK A01 T00140005  RH  094%=      5-min Rain = 0
KTH1 090220Z 31006KT 01/01 A3031 RMK A01 T00140005  RH  094%=      5-min Rain = 0
KTH1 090221Z 30006KT 01/01 A3031 RMK A01 T00140005  RH  094%=      5-min Rain = 0
KTH1 090222Z 31006KT 01/01 A3031 RMK A01 T00140005  RH  094%=      5-min Rain = 0
KTH1 090223Z 30006KT 01/01 A3031 RMK A01 T00140005  RH  093%=      5-min Rain = 0
KTH1 090224Z 30006KT 01/00 A3031 RMK A01 T00140004  RH  093%=      5-min Rain = 0
KTH1 090225Z 30006KT 01/00 A3031 RMK A01 T00140004  RH  093%=      5-min Rain = 0
KTH1 090226Z 30005KT 01/00 A3031 RMK A01 T00140004  RH  093%=      5-min Rain = 0
KTH1 090227Z 31005KT 02/01 A3031 RMK A01 T00150005  RH  093%=      5-min Rain = 0
KTH1 090228Z 31005KT 02/01 A3031 RMK A01 T00150005  RH  093%=      5-min Rain = 0
KTH1 090229Z 31006KT 01/00 A3031 RMK A01 T00140004  RH  093%=      5-min Rain = 0
KTH1 090230Z 31006KT 01/00 A3031 RMK A01 T00140003  RH  092%=      5-min Rain = 0
KTH1 090231Z 31005KT 01/00 A3031 RMK A01 T00140003  RH  092%=      5-min Rain = 0
KTH1 090232Z 31006KT 01/00 A3031 RMK A01 T00140004  RH  093%=      5-min Rain = 0
KTH1 090233Z 31006KT 02/00 A3031 RMK A01 T00150004  RH  093%=      5-min Rain = 0
KTH1 090234Z 31006KT 02/00 A3031 RMK A01 T00150004  RH  093%=      5-min Rain = 0
KTH1 090235Z 31006KT 02/01 A3031 RMK A01 T00150005  RH  093%=      5-min Rain = 0
KTH1 090236Z 30006KT 02/01 A3031 RMK A01 T00160006  RH  093%=      5-min Rain = 0
KTH1 090237Z 31005KT 02/01 A3031 RMK A01 T00160006  RH  093%=      5-min Rain = 0
KTH1 090238Z 30006KT 02/01 A3031 RMK A01 T00160005  RH  093%=      5-min Rain = 0
KTH1 090239Z 30006KT 02/00 A3031 RMK A01 T00150003  RH  092%=      5-min Rain = 0
KTH1 090240Z 30005KT 01/00 A3031 RMK A01 T00140003  RH  092%=      5-min Rain = 0
KTH1 090241Z 30006KT 01/00 A3031 RMK A01 T00140003  RH  092%=      5-min Rain = 0
KTH1 090242Z 30006KT 02/00 A3031 RMK A01 T00150004  RH  093%=      5-min Rain = 0
KTH1 090243Z 30006KT 01/00 A3031 RMK A01 T00140004  RH  093%=      5-min Rain = 0
KTH1 090244Z 30006KT 02/00 A3031 RMK A01 T00150004  RH  093%=      5-min Rain = 0
KTH1 090245Z 30006KT 02/01 A3031 RMK A01 T00150005  RH  093%=      5-min Rain = 0
KTH1 090246Z 30005KT 02/01 A3031 RMK A01 T00150005  RH  093%=      5-min Rain = 0
KTH1 090247Z 30006KT 02/01 A3031 RMK A01 T00150005  RH  093%=      5-min Rain = 0
KTH1 090248Z 30005KT 01/01 A3031 RMK A01 T00140005  RH  093%=      5-min Rain = 0
KTH1 090249Z 31005KT 02/01 A3031 RMK A01 T00150005  RH  093%=      5-min Rain = 0
KTH1 090250Z 30005KT 01/01 A3031 RMK A01 T00140005  RH  094%=      5-min Rain = 0
KTH1 090251Z 30005KT 02/01 A3031 RMK A01 T00150005  RH  093%=      5-min Rain = 0
KTH1 090252Z 30005KT 02/01 A3031 RMK A01 T00150005  RH  093%=      5-min Rain = 0
KTH1 090253Z 30004KT 01/00 A3031 RMK A01 T00140004  RH  093%=      5-min Rain = 0
KTH1 090254Z 31005KT 01/00 A3031 RMK A01 T00140004  RH  093%=      5-min Rain = 0
KTH1 090255Z 30005KT 01/00 A3031 RMK A01 T00140004  RH  093%=      5-min Rain = 0
KTH1 090256Z 30006KT 01/01 A3031 RMK A01 T00140005  RH  093%=      5-min Rain = 0
KTH1 090257Z 30006KT 01/01 A3031 RMK A01 T00140005  RH  093%=      5-min Rain = 0
KTH1 090258Z 31005KT 01/00 A3031 RMK A01 T00140004  RH  093%=      5-min Rain = 0
KTH1 090259Z 30005KT 01/01 A3031 RMK A01 T00140005  RH  093%=      5-min Rain = 0
KTH1 090300Z 30005KT 01/00 A3031 RMK A01 T00140004  RH  093%=      5-min Rain = 0
KTH1 090301Z 29006KT 01/00 A3031 RMK A01 T00140004  RH  093%=      5-min Rain = 0
KTH1 090302Z 30006KT 01/00 A3031 RMK A01 T00130003  RH  093%=      5-min Rain = 0
KTH1 090303Z 30006KT 01/00 A3031 RMK A01 T00130003  RH  093%=      5-min Rain = 0
KTH1 090304Z 30006KT 01/00 A3031 RMK A01 T00130004  RH  094%=      5-min Rain = 0
KTH1 090305Z 30006KT 01/00 A3031 RMK A01 T00130004  RH  094%=      5-min Rain = 0
KTH1 090306Z 30005KT 01/00 A3031 RMK A01 T00130004  RH  093%=      5-min Rain = 0
KTH1 090307Z 30006KT 01/00 A3031 RMK A01 T00130003  RH  093%=      5-min Rain = 0
KTH1 090308Z 30006KT 01/00 A3031 RMK A01 T00130004  RH  093%=      5-min Rain = 0
KTH1 090309Z 30006KT 01/00 A3031 RMK A01 T00130004  RH  094%=      5-min Rain = 0
KTH1 090310Z 30006KT 01/00 A3031 RMK A01 T00130003  RH  093%=      5-min Rain = 0
KTH1 090311Z 30006KT 01/00 A3031 RMK A01 T00130003  RH  093%=      5-min Rain = 0
KTH1 090312Z 30007KT 01/00 A3031 RMK A01 T00130004  RH  094%=      5-min Rain = 0
KTH1 090313Z 30007KT 01/00 A3031 RMK A01 T00130004  RH  094%=      5-min Rain = 0
KTH1 090314Z 30006KT 01/00 A3031 RMK A01 T00130003  RH  093%=      5-min Rain = 0
KTH1 090315Z 30006KT 01/00 A3031 RMK A01 T00130003  RH  094%=      5-min Rain = 0
KTH1 090316Z 30006KT 01/00 A3031 RMK A01 T00130004  RH  094%=      5-min Rain = 0
KTH1 090317Z 30006KT 01/00 A3031 RMK A01 T00130003  RH  094%=      5-min Rain = 0
KTH1 090318Z 30007KT 01/00 A3031 RMK A01 T00130003  RH  093%=      5-min Rain = 0
KTH1 090319Z 30005KT 01/00 A3031 RMK A01 T00120002  RH  093%=      5-min Rain = 0
KTH1 090320Z 30006KT 01/00 A3031 RMK A01 T00120003  RH  093%=      5-min Rain = 0
KTH1 090321Z 30006KT 01/00 A3031 RMK A01 T00120003  RH  093%=      5-min Rain = 0
KTH1 090322Z 30006KT 01/00 A3031 RMK A01 T00120003  RH  093%=      5-min Rain = 0
KTH1 090323Z 30006KT 01/00 A3031 RMK A01 T00120003  RH  093%=      5-min Rain = 0
KTH1 090324Z 30006KT 01/00 A3031 RMK A01 T00120003  RH  093%=      5-min Rain = 0
KTH1 090325Z 30006KT 01/00 A3031 RMK A01 T00120003  RH  093%=      5-min Rain = 0
KTH1 090326Z 30007KT 01/00 A3031 RMK A01 T00120003  RH  094%=      5-min Rain = 0
KTH1 090327Z 30006KT 01/00 A3031 RMK A01 T00120002  RH  093%=      5-min Rain = 0
KTH1 090328Z 29007KT 01/00 A3031 RMK A01 T00120002  RH  093%=      5-min Rain = 0
KTH1 090329Z 30007KT 01/00 A3031 RMK A01 T00120002  RH  093%=      5-min Rain = 0
KTH1 090330Z 30007KT 01/00 A3031 RMK A01 T00120002  RH  093%=      5-min Rain = 0
KTH1 090331Z 29006KT 01/00 A3031 RMK A01 T00120003  RH  094%=      5-min Rain = 0
KTH1 090332Z 29007KT 01/00 A3031 RMK A01 T00120003  RH  093%=      5-min Rain = 0
KTH1 090333Z 30006KT 01/00 A3031 RMK A01 T00120003  RH  093%=      5-min Rain = 0
KTH1 090334Z 29006KT 01/00 A3031 RMK A01 T00120002  RH  093%=      5-min Rain = 0
KTH1 090335Z 29006KT 01/00 A3031 RMK A01 T00120002  RH  093%=      5-min Rain = 0
KTH1 090336Z 30006KT 01/00 A3031 RMK A01 T00120003  RH  093%=      5-min Rain = 0
KTH1 090337Z 30006KT 01/00 A3031 RMK A01 T00120003  RH  093%=      5-min Rain = 0
KTH1 090338Z 29007KT 01/00 A3031 RMK A01 T00120002  RH  093%=      5-min Rain = 0
KTH1 090339Z 30007KT 01/00 A3031 RMK A01 T00120002  RH  093%=      5-min Rain = 0
KTH1 090340Z 30006KT 01/00 A3031 RMK A01 T00120002  RH  093%=      5-min Rain = 0
KTH1 090341Z 29006KT 01/00 A3031 RMK A01 T00120001  RH  093%=      5-min Rain = 0
KTH1 090342Z 29006KT 01/00 A3031 RMK A01 T00120002  RH  093%=      5-min Rain = 0
KTH1 090343Z 30006KT 01/00 A3031 RMK A01 T00120002  RH  093%=      5-min Rain = 0
KTH1 090344Z 30005KT 01/00 A3031 RMK A01 T00120002  RH  093%=      5-min Rain = 0
KTH1 090345Z 29005KT 01/00 A3031 RMK A01 T00120002  RH  093%=      5-min Rain = 0
KTH1 090346Z 29005KT 01/00 A3031 RMK A01 T00120002  RH  093%=      5-min Rain = 0
KTH1 090347Z 29005KT 01/00 A3031 RMK A01 T00120003  RH  093%=      5-min Rain = 0
KTH1 090348Z 29005KT 01/00 A3031 RMK A01 T00120002  RH  093%=      5-min Rain = 0
KTH1 090349Z 29005KT 01/00 A3031 RMK A01 T00120002  RH  093%=      5-min Rain = 0
KTH1 090350Z 29004KT 01/00 A3031 RMK A01 T00120002  RH  093%=      5-min Rain = 0
KTH1 090351Z 30004KT 01/00 A3031 RMK A01 T00120002  RH  093%=      5-min Rain = 0
KTH1 090352Z 29005KT 01/00 A3031 RMK A01 T00120003  RH  093%=      5-min Rain = 0
KTH1 090353Z 29005KT 01/00 A3031 RMK A01 T00120002  RH  093%=      5-min Rain = 0
KTH1 090354Z 29005KT 01/00 A3031 RMK A01 T00110000  RH  092%=      5-min Rain = 0
KTH1 090355Z 30006KT 01/00 A3031 RMK A01 T00110001  RH  093%=      5-min Rain = 0
KTH1 090356Z 30005KT 01/00 A3031 RMK A01 T00110000  RH  093%=      5-min Rain = 0
KTH1 090357Z 30005KT 01/M00 A3031 RMK A01 T00101001  RH  092%=      5-min Rain = 0
KTH1 090358Z 29005KT 01/00 A3031 RMK A01 T001000-0  RH  093%=      5-min Rain = 0
KTH1 090359Z 29006KT 01/00 A3031 RMK A01 T00100000  RH  093%=      5-min Rain = 0
KTH1 090400Z 30006KT 01/00 A3031 RMK A01 T00110001  RH  093%=      5-min Rain = 0
KTH1 090401Z 29006KT 01/00 A3031 RMK A01 T00110001  RH  093%=      5-min Rain = 0
KTH1 090402Z 29006KT 01/00 A3031 RMK A01 T00100000  RH  093%=      5-min Rain = 0
KTH1 090403Z 30006KT 01/00 A3031 RMK A01 T001000-0  RH  093%=      5-min Rain = 0
KTH1 090404Z 29005KT 01/M00 A3031 RMK A01 T00091001  RH  093%=      5-min Rain = 0
KTH1 090405Z 29005KT 01/M00 A3031 RMK A01 T00101001  RH  093%=      5-min Rain = 0
KTH1 090406Z 29005KT 01/M00 A3031 RMK A01 T00091001  RH  093%=      5-min Rain = 0
KTH1 090407Z 30006KT 01/M00 A3031 RMK A01 T00091002  RH  093%=      5-min Rain = 0
KTH1 090408Z 29006KT 01/M00 A3031 RMK A01 T00081003  RH  093%=      5-min Rain = 0
KTH1 090409Z 30005KT 01/M00 A3031 RMK A01 T00081002  RH  093%=      5-min Rain = 0
KTH1 090410Z 30006KT 01/M00 A3031 RMK A01 T00081002  RH  093%=      5-min Rain = 0
KTH1 090411Z 29006KT 01/M00 A3031 RMK A01 T00071003  RH  093%=      5-min Rain = 0
KTH1 090412Z 30006KT 01/M00 A3031 RMK A01 T00071003  RH  093%=      5-min Rain = 0
KTH1 090413Z 29005KT 01/M00 A3031 RMK A01 T00071003  RH  093%=      5-min Rain = 0
KTH1 090414Z 29005KT 01/M00 A3031 RMK A01 T00071003  RH  093%=      5-min Rain = 0
KTH1 090415Z 29005KT 01/M00 A3031 RMK A01 T00071002  RH  093%=      5-min Rain = 0
KTH1 090416Z 29005KT 01/M00 A3031 RMK A01 T00071002  RH  094%=      5-min Rain = 0
KTH1 090417Z 29005KT 01/M00 A3031 RMK A01 T00071002  RH  094%=      5-min Rain = 0
KTH1 090418Z 29005KT 01/M00 A3031 RMK A01 T00071002  RH  093%=      5-min Rain = 0
KTH1 090419Z 29005KT 01/M00 A3031 RMK A01 T00071003  RH  093%=      5-min Rain = 0
KTH1 090420Z 29005KT 01/M00 A3031 RMK A01 T00071003  RH  093%=      5-min Rain = 0
KTH1 090421Z 28006KT 01/M00 A3031 RMK A01 T00061003  RH  093%=      5-min Rain = 0
KTH1 090422Z 29005KT 01/M00 A3031 RMK A01 T00061004  RH  093%=      5-min Rain = 0
KTH1 090423Z 29005KT 01/M00 A3031 RMK A01 T00061004  RH  093%=      5-min Rain = 0
KTH1 090424Z 28004KT 01/M00 A3031 RMK A01 T00061004  RH  093%=      5-min Rain = 0
KTH1 090425Z 29005KT 01/M00 A3031 RMK A01 T00061003  RH  093%=      5-min Rain = 0
KTH1 090426Z 29005KT 01/M00 A3031 RMK A01 T00061003  RH  093%=      5-min Rain = 0
KTH1 090427Z 28005KT 01/M00 A3031 RMK A01 T00051004  RH  093%=      5-min Rain = 0
KTH1 090428Z 29005KT 01/M00 A3031 RMK A01 T00051004  RH  094%=      5-min Rain = 0
KTH1 090429Z 29005KT 01/M00 A3031 RMK A01 T00051004  RH  094%=      5-min Rain = 0
KTH1 090430Z 29005KT 01/M00 A3031 RMK A01 T00051004  RH  094%=      5-min Rain = 0
KTH1 090431Z 28004KT 01/M00 A3031 RMK A01 T00051004  RH  094%=      5-min Rain = 0
KTH1 090432Z 28004KT 01/M00 A3031 RMK A01 T00051004  RH  094%=      5-min Rain = 0
KTH1 090433Z 29005KT 00/M01 A3031 RMK A01 T00041005  RH  094%=      5-min Rain = 0
KTH1 090434Z 29004KT 00/M01 A3031 RMK A01 T00041005  RH  094%=      5-min Rain = 0
KTH1 090435Z 28004KT 00/M01 A3031 RMK A01 T00041005  RH  094%=      5-min Rain = 0
KTH1 090436Z 28005KT 00/M01 A3031 RMK A01 T00041005  RH  094%=      5-min Rain = 0
KTH1 090437Z 28006KT 00/M01 A3031 RMK A01 T00041005  RH  094%=      5-min Rain = 0
KTH1 090438Z 28006KT 00/M01 A3031 RMK A01 T00031005  RH  094%=      5-min Rain = 0
KTH1 090439Z 28005KT 00/M01 A3031 RMK A01 T00031006  RH  094%=      5-min Rain = 0
KTH1 090440Z 29006KT 00/M01 A3031 RMK A01 T00031006  RH  094%=      5-min Rain = 0
KTH1 090441Z 29006KT 00/M01 A3032 RMK A01 T00031006  RH  094%=      5-min Rain = 0
KTH1 090442Z 29005KT 00/M01 A3032 RMK A01 T00031006  RH  094%=      5-min Rain = 0
KTH1 090443Z 29006KT 00/M01 A3032 RMK A01 T00031006  RH  094%=      5-min Rain = 0
KTH1 090444Z 29006KT 00/M01 A3032 RMK A01 T00031006  RH  094%=      5-min Rain = 0
KTH1 090445Z 29006KT 00/M01 A3032 RMK A01 T00031006  RH  094%=      5-min Rain = 0
KTH1 090446Z 29005KT 00/M01 A3032 RMK A01 T00031005  RH  094%=      5-min Rain = 0
KTH1 090447Z 29006KT 00/M00 A3032 RMK A01 T00041004  RH  094%=      5-min Rain = 0
KTH1 090448Z 29006KT 00/M00 A3032 RMK A01 T00041004  RH  095%=      5-min Rain = 0
KTH1 090449Z 29006KT 01/M00 A3032 RMK A01 T00051003  RH  095%=      5-min Rain = 0
KTH1 090450Z 29005KT 00/M00 A3032 RMK A01 T00041003  RH  095%=      5-min Rain = 0
KTH1 090451Z 29007KT 01/M00 A3032 RMK A01 T00051003  RH  095%=      5-min Rain = 0
KTH1 090452Z 29007KT 01/M00 A3032 RMK A01 T00051002  RH  095%=      5-min Rain = 0
KTH1 090453Z 29007KT 01/M00 A3032 RMK A01 T00051003  RH  095%=      5-min Rain = 0
KTH1 090454Z 29007KT 00/M00 A3032 RMK A01 T00041004  RH  094%=      5-min Rain = 0
KTH1 090455Z 29006KT 00/M00 A3032 RMK A01 T00041004  RH  094%=      5-min Rain = 0
KTH1 090456Z 28007KT 00/M00 A3032 RMK A01 T00041004  RH  094%=      5-min Rain = 0
KTH1 090457Z 29007KT 00/M00 A3032 RMK A01 T00041004  RH  094%=      5-min Rain = 0
KTH1 090458Z 29006KT 00/M01 A3032 RMK A01 T00041005  RH  094%=      5-min Rain = 0
KTH1 090459Z 29008KT 00/M00 A3032 RMK A01 T00041004  RH  094%=      5-min Rain = 0
KTH1 090500Z 29007KT 00/M01 A3032 RMK A01 T00041005  RH  094%=      5-min Rain = 0
KTH1 090501Z 28007KT 00/M01 A3032 RMK A01 T00041006  RH  093%=      5-min Rain = 0
KTH1 090502Z 29007KT 00/M01 A3032 RMK A01 T00041006  RH  093%=      5-min Rain = 0
KTH1 090503Z 29006KT 00/M01 A3032 RMK A01 T00031006  RH  094%=      5-min Rain = 0
KTH1 090504Z 29006KT 00/M01 A3032 RMK A01 T00041006  RH  093%=      5-min Rain = 0
KTH1 090505Z 28006KT 00/M01 A3032 RMK A01 T00041006  RH  093%=      5-min Rain = 0
KTH1 090506Z 28006KT 00/M01 A3032 RMK A01 T00041005  RH  094%=      5-min Rain = 0
KTH1 090507Z 28006KT 00/M01 A3032 RMK A01 T00031006  RH  094%=      5-min Rain = 0
KTH1 090508Z 28006KT 00/M01 A3032 RMK A01 T00041005  RH  094%=      5-min Rain = 0
KTH1 090509Z 28005KT 00/M01 A3032 RMK A01 T00041005  RH  094%=      5-min Rain = 0
KTH1 090510Z 28006KT 00/M01 A3032 RMK A01 T00031006  RH  094%=      5-min Rain = 0
KTH1 090511Z 29006KT 00/M01 A3032 RMK A01 T00031006  RH  094%=      5-min Rain = 0
KTH1 090512Z 29006KT 00/M01 A3032 RMK A01 T00031007  RH  093%=      5-min Rain = 0
KTH1 090513Z 29006KT 00/M01 A3032 RMK A01 T00031006  RH  094%=      5-min Rain = 0
KTH1 090514Z 29006KT 00/M01 A3032 RMK A01 T00031007  RH  094%=      5-min Rain = 0
KTH1 090515Z 29006KT 00/M01 A3032 RMK A01 T00021007  RH  094%=      5-min Rain = 0
KTH1 090516Z 28006KT 00/M01 A3032 RMK A01 T00021007  RH  094%=      5-min Rain = 0
KTH1 090517Z 28006KT 00/M01 A3032 RMK A01 T00021007  RH  094%=      5-min Rain = 0
KTH1 090518Z 28006KT 00/M01 A3032 RMK A01 T00021007  RH  094%=      5-min Rain = 0
KTH1 090519Z 28006KT 00/M01 A3032 RMK A01 T00011007  RH  094%=      5-min Rain = 0
KTH1 090520Z 28006KT 00/M01 A3032 RMK A01 T00011007  RH  094%=      5-min Rain = 0
KTH1 090521Z 28006KT 00/M01 A3032 RMK A01 T00011007  RH  094%=      5-min Rain = 0
KTH1 090522Z 29006KT 00/M01 A3032 RMK A01 T00011007  RH  094%=      5-min Rain = 0
KTH1 090523Z 28006KT 00/01 A3032 RMK A01 T000000-8  RH  094%=      5-min Rain = 0
KTH1 090524Z 29006KT 00/01 A3032 RMK A01 T000000-8  RH  094%=      5-min Rain = 0
KTH1 090525Z 29005KT 00/01 A3032 RMK A01 T000000-8  RH  094%=      5-min Rain = 0
KTH1 090526Z 29006KT 00/01 A3032 RMK A01 T000000-8  RH  095%=      5-min Rain = 0
KTH1 090527Z 29006KT 00/01 A3032 RMK A01 T00-000-8  RH  095%=      5-min Rain = 0
KTH1 090528Z 29006KT 00/01 A3032 RMK A01 T00-000-8  RH  095%=      5-min Rain = 0
KTH1 090529Z 29006KT 00/01 A3032 RMK A01 T00-000-8  RH  095%=      5-min Rain = 0
KTH1 090530Z 29006KT 00/01 A3032 RMK A01 T00-000-8  RH  095%=      5-min Rain = 0
KTH1 090531Z 29006KT 00/01 A3032 RMK A01 T00-000-7  RH  095%=      5-min Rain = 0
KTH1 090532Z 29006KT 00/01 A3032 RMK A01 T00-000-8  RH  095%=      5-min Rain = 0
KTH1 090533Z 29006KT 00/01 A3032 RMK A01 T000000-7  RH  095%=      5-min Rain = 0
KTH1 090534Z 29007KT 00/01 A3032 RMK A01 T000000-7  RH  095%=      5-min Rain = 0
KTH1 090535Z 30006KT 00/01 A3032 RMK A01 T000000-7  RH  095%=      5-min Rain = 0
KTH1 090536Z 30007KT 00/01 A3032 RMK A01 T000000-7  RH  095%=      5-min Rain = 0
KTH1 090537Z 30007KT 00/01 A3032 RMK A01 T000000-7  RH  095%=      5-min Rain = 0
KTH1 090538Z 29006KT 00/01 A3032 RMK A01 T000000-8  RH  094%=      5-min Rain = 0
KTH1 090539Z 30007KT 00/01 A3032 RMK A01 T000000-8  RH  094%=      5-min Rain = 0
KTH1 090540Z 30008KT 00/M01 A3032 RMK A01 T00011007  RH  095%=      5-min Rain = 0
KTH1 090541Z 30007KT 00/M01 A3032 RMK A01 T00011007  RH  094%=      5-min Rain = 0
KTH1 090542Z 29007KT 00/M01 A3032 RMK A01 T00011007  RH  094%=      5-min Rain = 0
KTH1 090543Z 30007KT 00/M01 A3032 RMK A01 T00011007  RH  094%=      5-min Rain = 0
KTH1 090544Z 30007KT 00/M01 A3032 RMK A01 T00011007  RH  094%=      5-min Rain = 0
KTH1 090545Z 29008KT 00/M01 A3032 RMK A01 T00011007  RH  095%=      5-min Rain = 0
KTH1 090546Z 29008KT 00/M01 A3032 RMK A01 T00011007  RH  094%=      5-min Rain = 0
KTH1 090547Z 29007KT 00/M01 A3032 RMK A01 T00011008  RH  094%=      5-min Rain = 0
KTH1 090548Z 29008KT 00/M01 A3032 RMK A01 T00011008  RH  094%=      5-min Rain = 0
KTH1 090549Z 29009KT 00/01 A3032 RMK A01 T000000-9  RH  094%=      5-min Rain = 0
KTH1 090550Z 29009KT 00/01 A3032 RMK A01 T00-000-9  RH  094%=      5-min Rain = 0
KTH1 090551Z 29008KT M00/M01 A3032 RMK A01 T10011010  RH  093%=      5-min Rain = 0
KTH1 090552Z 29008KT M00/M01 A3032 RMK A01 T10011011  RH  093%=      5-min Rain = 0
KTH1 090553Z 29007KT M00/M01 A3032 RMK A01 T10011010  RH  094%=      5-min Rain = 0
KTH1 090554Z 29008KT M00/M01 A3032 RMK A01 T10011010  RH  094%=      5-min Rain = 0
KTH1 090555Z 29008KT M00/M01 A3032 RMK A01 T10011009  RH  094%=      5-min Rain = 0
KTH1 090556Z 29008KT M00/M01 A3032 RMK A01 T10011009  RH  094%=      5-min Rain = 0
KTH1 090557Z 29008KT M00/M01 A3032 RMK A01 T10011009  RH  094%=      5-min Rain = 0
KTH1 090558Z 29008KT M00/M01 A3032 RMK A01 T10011009  RH  094%=      5-min Rain = 0
KTH1 090559Z 29007KT M00/M01 A3032 RMK A01 T10011009  RH  094%=      5-min Rain = 0

Page generated in 0.0806 seconds.